GFSNGP_prec_pwat_096.txt.gz
Precipitable_Water
0.35 0.35 0.35 0.31 0.29 0.29 0.28 0.28 0.22 0.24 0.23 0.31 0.43 0.46 0.56 0.61 0.61 0.61 0.64 0.64 0.71 0.73 0.80 0.80 0.85 0.91 0.96 1.01 1.03 1.11 1.16 1.19 1.20 1.19 1.15 1.04 0.93 0.92 0.93 0.93 0.95 0.97 0.97 1.00
0.26 0.28 0.26 0.24 0.25 0.25 0.25 0.26 0.26 0.26 0.26 0.42 0.50 0.54 0.56 0.58 0.61 0.63 0.66 0.70 0.71 0.74 0.77 0.81 0.82 0.87 0.93 1.01 1.02 1.07 1.11 1.13 1.14 1.16 1.18 1.15 1.07 0.99 0.98 0.98 0.99 1.02 1.01 1.02
0.21 0.23 0.18 0.16 0.21 0.20 0.22 0.26 0.25 0.21 0.28 0.41 0.45 0.50 0.54 0.58 0.64 0.64 0.66 0.68 0.71 0.72 0.72 0.77 0.80 0.84 0.90 0.96 1.03 1.05 1.08 1.10 1.13 1.12 1.13 1.18 1.17 1.14 1.09 1.06 1.09 1.09 1.12 1.12
0.16 0.17 0.11 0.22 0.26 0.28 0.25 0.28 0.28 0.31 0.38 0.46 0.48 0.53 0.58 0.64 0.64 0.63 0.65 0.67 0.70 0.72 0.73 0.78 0.81 0.84 0.86 0.93 0.96 0.98 1.00 1.03 1.06 1.09 1.06 1.11 1.11 1.11 1.13 1.13 1.11 1.11 1.10 1.10
0.15 0.15 0.19 0.25 0.28 0.27 0.25 0.25 0.32 0.30 0.36 0.44 0.51 0.55 0.54 0.64 0.65 0.65 0.66 0.68 0.68 0.71 0.74 0.76 0.77 0.78 0.83 0.86 0.87 0.86 0.89 0.93 0.96 0.99 1.00 1.00 1.04 1.03 1.04 1.05 1.06 1.04 1.04 1.03
0.19 0.14 0.14 0.28 0.34 0.37 0.33 0.20 0.33 0.34 0.34 0.43 0.50 0.42 0.46 0.58 0.62 0.65 0.67 0.66 0.63 0.63 0.66 0.73 0.76 0.79 0.80 0.78 0.79 0.79 0.80 0.83 0.86 0.85 0.88 0.90 0.94 0.96 0.98 0.99 0.97 0.97 0.94 0.93
0.18 0.16 0.20 0.32 0.35 0.37 0.21 0.27 0.38 0.37 0.36 0.43 0.43 0.49 0.53 0.57 0.59 0.62 0.64 0.63 0.60 0.57 0.55 0.57 0.65 0.69 0.69 0.73 0.74 0.75 0.71 0.71 0.72 0.73 0.75 0.72 0.69 0.68 0.69 0.69 0.69 0.68 0.68 0.67
0.22 0.18 0.16 0.39 0.36 0.27 0.36 0.44 0.43 0.42 0.41 0.42 0.46 0.49 0.53 0.58 0.60 0.61 0.59 0.57 0.56 0.53 0.53 0.55 0.55 0.56 0.59 0.60 0.62 0.65 0.68 0.67 0.62 0.59 0.57 0.55 0.54 0.56 0.56 0.54 0.52 0.50 0.47 0.46
0.26 0.25 0.38 0.42 0.40 0.44 0.46 0.41 0.42 0.43 0.45 0.45 0.46 0.47 0.49 0.52 0.56 0.59 0.59 0.56 0.56 0.58 0.55 0.53 0.52 0.51 0.49 0.53 0.55 0.56 0.53 0.53 0.55 0.59 0.61 0.60 0.55 0.52 0.49 0.47 0.44 0.42 0.42 0.42
0.30 0.33 0.37 0.41 0.44 0.45 0.44 0.44 0.48 0.48 0.47 0.46 0.44 0.47 0.47 0.48 0.50 0.50 0.53 0.53 0.51 0.48 0.47 0.47 0.49 0.48 0.48 0.48 0.50 0.51 0.49 0.49 0.47 0.47 0.46 0.46 0.47 0.48 0.46 0.45 0.45 0.44 0.42 0.41
0.32 0.36 0.39 0.41 0.43 0.44 0.45 0.46 0.45 0.46 0.45 0.44 0.43 0.42 0.43 0.43 0.44 0.45 0.45 0.47 0.47 0.45 0.43 0.42 0.44 0.44 0.45 0.45 0.44 0.43 0.43 0.43 0.43 0.42 0.42 0.42 0.43 0.43 0.43 0.44 0.43 0.41 0.41 0.41
0.28 0.38 0.38 0.38 0.43 0.45 0.43 0.43 0.44 0.44 0.43 0.44 0.43 0.42 0.43 0.42 0.43 0.43 0.42 0.43 0.44 0.44 0.43 0.42 0.42 0.42 0.42 0.43 0.43 0.42 0.40 0.40 0.40 0.40 0.40 0.39 0.38 0.37 0.40 0.40 0.41 0.41 0.41 0.40
0.38 0.44 0.43 0.44 0.45 0.46 0.44 0.42 0.41 0.41 0.41 0.40 0.41 0.41 0.40 0.39 0.41 0.42 0.43 0.43 0.42 0.42 0.42 0.42 0.41 0.40 0.41 0.42 0.42 0.40 0.39 0.39 0.39 0.39 0.38 0.37 0.37 0.36 0.35 0.37 0.37 0.38 0.38 0.39
0.45 0.44 0.39 0.42 0.40 0.43 0.42 0.41 0.39 0.38 0.38 0.38 0.38 0.39 0.38 0.38 0.38 0.38 0.38 0.39 0.41 0.41 0.41 0.41 0.40 0.39 0.41 0.41 0.41 0.40 0.40 0.39 0.39 0.39 0.38 0.37 0.36 0.36 0.35 0.34 0.33 0.33 0.35 0.35
0.41 0.42 0.41 0.41 0.40 0.39 0.39 0.37 0.34 0.33 0.33 0.34 0.35 0.35 0.35 0.34 0.34 0.35 0.37 0.37 0.36 0.36 0.36 0.36 0.36 0.36 0.38 0.38 0.37 0.37 0.37 0.36 0.36 0.36 0.35 0.35 0.35 0.34 0.33 0.32 0.31 0.31 0.31 0.32
0.37 0.37 0.38 0.37 0.36 0.35 0.35 0.33 0.32 0.31 0.32 0.32 0.32 0.33 0.33 0.33 0.33 0.33 0.33 0.33 0.32 0.32 0.33 0.33 0.33 0.34 0.35 0.36 0.36 0.35 0.34 0.34 0.34 0.34 0.33 0.33 0.32 0.31 0.31 0.30 0.29 0.28 0.27 0.27
0.29 0.31 0.33 0.32 0.32 0.32 0.31 0.32 0.32 0.31 0.30 0.31 0.31 0.32 0.32 0.32 0.32 0.31 0.31 0.31 0.30 0.30 0.30 0.30 0.30 0.31 0.32 0.32 0.32 0.32 0.32 0.31 0.31 0.31 0.29 0.29 0.28 0.26 0.25 0.24 0.22 0.20 0.18 0.17
0.34 0.33 0.33 0.33 0.32 0.31 0.30 0.30 0.30 0.30 0.28 0.29 0.29 0.29 0.29 0.29 0.28 0.28 0.29 0.29 0.29 0.28 0.28 0.28 0.27 0.26 0.26 0.26 0.26 0.26 0.26 0.25 0.24 0.24 0.23 0.23 0.22 0.21 0.20 0.18 0.17 0.16 0.15 0.14
0.33 0.32 0.32 0.32 0.31 0.30 0.29 0.29 0.28 0.28 0.27 0.27 0.26 0.26 0.26 0.27 0.27 0.27 0.27 0.26 0.25 0.24 0.23 0.24 0.23 0.22 0.22 0.21 0.22 0.22 0.22 0.21 0.21 0.20 0.20 0.19 0.19 0.18 0.17 0.17 0.16 0.16 0.15 0.15
0.30 0.30 0.30 0.29 0.29 0.27 0.25 0.24 0.23 0.22 0.22 0.22 0.22 0.22 0.21 0.20 0.20 0.20 0.20 0.19 0.19 0.19 0.19 0.19 0.19 0.19 0.19 0.19 0.19 0.20 0.20 0.20 0.19 0.19 0.18 0.18 0.18 0.17 0.16 0.15 0.16 0.16 0.15 0.14
0.28 0.26 0.24 0.23 0.22 0.21 0.21 0.21 0.21 0.20 0.21 0.21 0.19 0.18 0.17 0.17 0.17 0.18 0.18 0.18 0.18 0.18 0.18 0.17 0.17 0.17 0.17 0.17 0.17 0.18 0.17 0.17 0.16 0.16 0.15 0.15 0.15 0.14 0.14 0.14 0.13 0.13 0.13 0.13
0.22 0.21 0.20 0.20 0.20 0.20 0.20 0.21 0.21 0.20 0.20 0.18 0.17 0.17 0.16 0.16 0.16 0.16 0.16 0.15 0.16 0.15 0.15 0.15 0.15 0.14 0.14 0.15 0.15 0.15 0.14 0.14 0.14 0.14 0.13 0.13 0.13 0.12 0.12 0.12 0.12 0.11 0.11 0.11
0.19 0.20 0.20 0.20 0.20 0.20 0.20 0.20 0.19 0.18 0.17 0.16 0.16 0.16 0.16 0.15 0.15 0.13 0.13 0.14 0.14 0.14 0.14 0.13 0.12 0.12 0.12 0.13 0.13 0.13 0.12 0.12 0.12 0.12 0.11 0.11 0.11 0.11 0.11 0.11 0.10 0.10 0.10 0.10
0.20 0.20 0.20 0.20 0.19 0.18 0.17 0.18 0.18 0.17 0.16 0.16 0.15 0.15 0.15 0.14 0.13 0.13 0.12 0.11 0.11 0.11 0.11 0.11 0.10 0.10 0.10 0.11 0.10 0.10 0.10 0.10 0.10 0.10 0.10 0.09 0.09 0.09 0.09 0.08 0.08 0.08 0.08 0.08
0.19 0.19 0.18 0.17 0.16 0.16 0.16 0.16 0.15 0.15 0.15 0.14 0.13 0.12 0.12 0.11 0.11 0.11 0.11 0.10 0.09 0.10 0.10 0.09 0.09 0.09 0.10 0.10 0.09 0.09 0.09 0.09 0.08 0.09 0.08 0.08 0.08 0.08 0.08 0.08 0.07 0.07 0.07 0.07
0.18 0.17 0.17 0.17 0.16 0.15 0.15 0.14 0.13 0.13 0.12 0.12 0.12 0.12 0.12 0.12 0.11 0.11 0.10 0.10 0.10 0.10 0.10 0.10 0.10 0.10 0.10 0.09 0.09 0.09 0.09 0.09 0.08 0.08 0.08 0.08 0.08 0.08 0.08 0.08 0.08 0.08 0.08 0.08
0.17 0.17 0.15 0.14 0.14 0.13 0.12 0.12 0.11 0.11 0.12 0.12 0.11 0.12 0.11 0.11 0.11 0.10 0.10 0.10 0.10 0.10 0.10 0.10 0.10 0.10 0.10 0.09 0.09 0.09 0.09 0.09 0.08 0.08 0.08 0.08 0.08 0.08 0.08 0.08 0.08 0.08 0.08 0.08

GFSNGP_prec_pwat_102.txt.gz
Precipitable_Water
0.38 0.39 0.38 0.44 0.45 0.45 0.35 0.33 0.35 0.37 0.42 0.45 0.48 0.45 0.46 0.52 0.54 0.53 0.56 0.58 0.58 0.60 0.61 0.68 0.74 0.81 0.84 0.87 0.91 0.90 0.95 1.02 1.05 1.18 1.24 1.24 1.20 1.15 1.10 1.08 1.05 0.99 0.99 1.01
0.39 0.41 0.42 0.30 0.33 0.32 0.33 0.36 0.36 0.41 0.43 0.57 0.55 0.53 0.48 0.50 0.50 0.51 0.54 0.56 0.59 0.61 0.63 0.64 0.70 0.77 0.79 0.81 0.85 0.87 0.88 0.93 1.00 1.06 1.11 1.15 1.17 1.17 1.13 1.11 1.08 1.02 0.95 0.94
0.24 0.29 0.29 0.25 0.29 0.35 0.36 0.37 0.39 0.34 0.45 0.55 0.47 0.47 0.48 0.49 0.51 0.51 0.54 0.57 0.58 0.60 0.62 0.65 0.68 0.75 0.76 0.78 0.82 0.85 0.87 0.91 0.94 0.96 1.01 1.06 1.09 1.06 1.11 1.08 1.07 1.01 0.95 0.90
0.22 0.25 0.21 0.34 0.43 0.47 0.39 0.38 0.38 0.39 0.42 0.43 0.42 0.49 0.52 0.54 0.52 0.52 0.53 0.54 0.57 0.60 0.63 0.65 0.69 0.72 0.77 0.80 0.79 0.83 0.86 0.89 0.93 0.95 0.97 0.99 1.00 1.01 1.03 1.02 0.99 0.98 0.97 0.93
0.24 0.25 0.30 0.33 0.37 0.38 0.38 0.35 0.40 0.32 0.34 0.37 0.42 0.50 0.50 0.53 0.55 0.54 0.55 0.53 0.53 0.54 0.56 0.61 0.67 0.71 0.74 0.76 0.77 0.78 0.80 0.85 0.88 0.92 0.92 0.93 0.92 0.93 0.98 0.98 0.96 0.96 0.94 0.91
0.25 0.21 0.22 0.34 0.35 0.39 0.40 0.25 0.42 0.40 0.36 0.37 0.41 0.34 0.41 0.51 0.54 0.55 0.55 0.53 0.51 0.51 0.53 0.54 0.57 0.68 0.71 0.71 0.73 0.74 0.76 0.79 0.82 0.84 0.85 0.86 0.86 0.86 0.89 0.92 0.93 0.96 0.96 0.92
0.24 0.24 0.28 0.36 0.36 0.36 0.22 0.29 0.45 0.44 0.40 0.39 0.35 0.38 0.46 0.52 0.53 0.56 0.58 0.54 0.56 0.55 0.54 0.55 0.55 0.57 0.59 0.67 0.68 0.71 0.74 0.74 0.75 0.78 0.80 0.82 0.84 0.81 0.81 0.83 0.85 0.86 0.86 0.87
0.26 0.23 0.21 0.36 0.33 0.23 0.36 0.45 0.44 0.45 0.45 0.43 0.43 0.44 0.45 0.47 0.51 0.55 0.54 0.52 0.52 0.51 0.50 0.52 0.53 0.52 0.51 0.53 0.62 0.68 0.69 0.71 0.71 0.72 0.76 0.77 0.77 0.76 0.75 0.77 0.79 0.77 0.80 0.79
0.24 0.26 0.37 0.39 0.39 0.43 0.44 0.41 0.43 0.45 0.46 0.45 0.44 0.43 0.45 0.44 0.43 0.44 0.46 0.47 0.48 0.48 0.47 0.46 0.47 0.48 0.46 0.48 0.53 0.54 0.59 0.62 0.64 0.66 0.68 0.69 0.70 0.68 0.70 0.73 0.70 0.69 0.70 0.70
0.28 0.33 0.35 0.38 0.43 0.45 0.46 0.45 0.46 0.47 0.45 0.45 0.42 0.43 0.41 0.42 0.42 0.41 0.42 0.42 0.42 0.41 0.41 0.41 0.42 0.44 0.45 0.47 0.47 0.47 0.47 0.49 0.53 0.56 0.57 0.59 0.62 0.64 0.64 0.65 0.64 0.64 0.64 0.63
0.29 0.33 0.36 0.39 0.42 0.44 0.45 0.46 0.45 0.46 0.45 0.44 0.43 0.40 0.41 0.39 0.39 0.39 0.40 0.41 0.42 0.41 0.41 0.41 0.42 0.43 0.45 0.46 0.47 0.45 0.44 0.45 0.44 0.45 0.46 0.48 0.51 0.52 0.53 0.56 0.57 0.56 0.57 0.58
0.26 0.36 0.36 0.37 0.43 0.45 0.43 0.42 0.42 0.41 0.40 0.41 0.41 0.39 0.40 0.39 0.39 0.39 0.38 0.39 0.39 0.40 0.40 0.40 0.42 0.43 0.44 0.45 0.45 0.45 0.43 0.42 0.43 0.43 0.43 0.41 0.40 0.41 0.44 0.45 0.46 0.47 0.47 0.47
0.36 0.42 0.42 0.43 0.45 0.45 0.41 0.41 0.41 0.40 0.39 0.37 0.38 0.38 0.37 0.37 0.38 0.37 0.37 0.37 0.37 0.37 0.38 0.38 0.38 0.38 0.42 0.44 0.45 0.43 0.41 0.42 0.42 0.42 0.42 0.41 0.42 0.39 0.37 0.39 0.40 0.40 0.41 0.42
0.45 0.43 0.39 0.42 0.39 0.42 0.41 0.40 0.40 0.38 0.38 0.37 0.37 0.37 0.36 0.35 0.36 0.35 0.35 0.35 0.35 0.35 0.35 0.35 0.36 0.36 0.38 0.40 0.39 0.41 0.41 0.41 0.40 0.40 0.40 0.40 0.40 0.39 0.39 0.37 0.35 0.36 0.38 0.38
0.40 0.41 0.39 0.38 0.38 0.37 0.39 0.38 0.36 0.35 0.35 0.35 0.35 0.34 0.34 0.33 0.32 0.32 0.33 0.35 0.34 0.34 0.34 0.34 0.33 0.34 0.37 0.38 0.38 0.37 0.38 0.38 0.39 0.39 0.39 0.38 0.38 0.37 0.37 0.36 0.34 0.34 0.34 0.36
0.34 0.34 0.33 0.32 0.32 0.33 0.35 0.34 0.33 0.32 0.32 0.32 0.32 0.32 0.32 0.31 0.30 0.30 0.30 0.30 0.29 0.28 0.30 0.30 0.30 0.31 0.34 0.35 0.36 0.36 0.35 0.35 0.36 0.36 0.36 0.36 0.36 0.35 0.34 0.33 0.31 0.29 0.27 0.28
0.29 0.27 0.31 0.31 0.32 0.32 0.31 0.31 0.31 0.30 0.30 0.30 0.29 0.30 0.30 0.30 0.29 0.29 0.29 0.29 0.28 0.28 0.28 0.27 0.27 0.28 0.27 0.30 0.31 0.31 0.31 0.30 0.30 0.30 0.29 0.29 0.28 0.27 0.27 0.26 0.24 0.21 0.19 0.21
0.34 0.35 0.35 0.34 0.31 0.30 0.29 0.30 0.29 0.29 0.27 0.27 0.27 0.26 0.24 0.24 0.23 0.23 0.23 0.23 0.24 0.24 0.22 0.21 0.22 0.23 0.21 0.22 0.24 0.26 0.26 0.26 0.25 0.24 0.24 0.23 0.24 0.23 0.23 0.21 0.21 0.20 0.19 0.19
0.35 0.33 0.32 0.31 0.31 0.30 0.28 0.26 0.24 0.23 0.22 0.22 0.21 0.20 0.20 0.20 0.19 0.19 0.19 0.19 0.19 0.19 0.18 0.19 0.20 0.20 0.19 0.18 0.20 0.22 0.22 0.21 0.21 0.21 0.21 0.21 0.19 0.19 0.20 0.19 0.18 0.18 0.18 0.18
0.31 0.31 0.30 0.28 0.26 0.24 0.22 0.22 0.22 0.21 0.21 0.21 0.20 0.19 0.18 0.17 0.16 0.17 0.19 0.19 0.19 0.18 0.18 0.18 0.18 0.19 0.18 0.18 0.19 0.21 0.20 0.20 0.19 0.18 0.18 0.19 0.19 0.19 0.17 0.16 0.17 0.17 0.17 0.16
0.27 0.24 0.22 0.20 0.20 0.20 0.20 0.20 0.19 0.18 0.18 0.17 0.16 0.15 0.15 0.15 0.16 0.15 0.15 0.17 0.17 0.16 0.15 0.16 0.16 0.13 0.15 0.15 0.17 0.18 0.17 0.17 0.17 0.17 0.17 0.17 0.17 0.16 0.16 0.16 0.16 0.16 0.16 0.15
0.21 0.19 0.19 0.19 0.19 0.19 0.19 0.19 0.19 0.18 0.16 0.15 0.14 0.14 0.15 0.16 0.16 0.16 0.15 0.14 0.15 0.14 0.13 0.14 0.13 0.10 0.11 0.14 0.15 0.15 0.14 0.14 0.15 0.15 0.15 0.14 0.14 0.14 0.14 0.14 0.14 0.13 0.13 0.13
0.20 0.20 0.19 0.18 0.19 0.18 0.19 0.18 0.17 0.16 0.14 0.14 0.14 0.14 0.14 0.14 0.13 0.11 0.11 0.12 0.12 0.11 0.12 0.11 0.10 0.08 0.10 0.12 0.12 0.12 0.13 0.12 0.12 0.12 0.12 0.12 0.12 0.12 0.12 0.11 0.11 0.12 0.11 0.11
0.20 0.20 0.19 0.20 0.19 0.18 0.16 0.16 0.16 0.16 0.14 0.14 0.13 0.12 0.11 0.11 0.12 0.16 0.13 0.12 0.11 0.09 0.10 0.10 0.09 0.08 0.09 0.12 0.11 0.11 0.11 0.11 0.11 0.11 0.11 0.10 0.10 0.10 0.10 0.10 0.09 0.09 0.10 0.09
0.20 0.19 0.19 0.18 0.18 0.19 0.17 0.17 0.15 0.16 0.16 0.15 0.16 0.15 0.14 0.14 0.12 0.12 0.12 0.12 0.11 0.10 0.11 0.10 0.10 0.09 0.10 0.11 0.10 0.10 0.10 0.11 0.10 0.09 0.10 0.10 0.10 0.10 0.10 0.10 0.09 0.09 0.08 0.08
0.20 0.20 0.20 0.18 0.17 0.16 0.15 0.15 0.14 0.14 0.15 0.15 0.16 0.18 0.17 0.16 0.14 0.13 0.13 0.13 0.11 0.11 0.10 0.12 0.12 0.11 0.10 0.11 0.11 0.10 0.10 0.10 0.11 0.11 0.10 0.09 0.10 0.10 0.10 0.10 0.09 0.09 0.10 0.10
0.19 0.18 0.18 0.17 0.17 0.16 0.15 0.13 0.13 0.13 0.13 0.13 0.12 0.13 0.17 0.15 0.14 0.13 0.11 0.11 0.12 0.12 0.12 0.12 0.12 0.12 0.12 0.10 0.10 0.10 0.11 0.10 0.11 0.10 0.10 0.09 0.09 0.10 0.10 0.10 0.10 0.09 0.09 0.09

GFSNGP_prec_pwat_105.txt.gz
Precipitable_Water
0.39 0.44 0.44 0.41 0.42 0.45 0.40 0.41 0.36 0.40 0.39 0.45 0.47 0.47 0.47 0.48 0.49 0.50 0.51 0.54 0.57 0.58 0.61 0.63 0.67 0.70 0.77 0.86 0.90 0.92 1.00 0.98 0.96 1.09 1.21 1.29 1.28 1.28 1.26 1.23 1.17 1.13 1.08 1.07
0.38 0.42 0.43 0.37 0.41 0.41 0.42 0.46 0.44 0.43 0.39 0.53 0.52 0.52 0.47 0.46 0.48 0.50 0.51 0.54 0.57 0.59 0.61 0.63 0.65 0.68 0.73 0.78 0.82 0.89 0.95 0.93 0.93 1.02 1.11 1.14 1.17 1.19 1.21 1.20 1.17 1.12 1.06 1.01
0.29 0.36 0.36 0.30 0.38 0.38 0.40 0.44 0.42 0.34 0.42 0.49 0.46 0.46 0.46 0.47 0.48 0.48 0.50 0.52 0.52 0.54 0.57 0.61 0.63 0.66 0.67 0.74 0.81 0.80 0.83 0.82 0.87 0.93 1.00 1.04 1.05 1.13 1.09 1.10 1.09 1.08 1.02 1.00
0.25 0.31 0.22 0.35 0.47 0.46 0.38 0.39 0.42 0.41 0.41 0.43 0.44 0.45 0.49 0.51 0.50 0.51 0.50 0.48 0.48 0.49 0.52 0.57 0.63 0.66 0.68 0.70 0.73 0.80 0.82 0.81 0.82 0.84 0.93 0.97 1.00 1.04 1.06 1.03 1.01 1.03 0.98 0.98
0.27 0.28 0.33 0.36 0.38 0.39 0.37 0.34 0.42 0.37 0.39 0.40 0.41 0.43 0.45 0.51 0.52 0.51 0.52 0.50 0.49 0.50 0.52 0.54 0.55 0.63 0.67 0.67 0.68 0.73 0.75 0.76 0.77 0.78 0.83 0.89 0.89 0.93 0.97 0.98 0.98 0.99 0.97 0.96
0.29 0.24 0.22 0.31 0.36 0.41 0.43 0.25 0.41 0.41 0.38 0.37 0.40 0.29 0.35 0.49 0.51 0.52 0.54 0.52 0.52 0.53 0.53 0.54 0.52 0.54 0.56 0.64 0.65 0.65 0.70 0.75 0.79 0.78 0.82 0.78 0.86 0.85 0.92 0.92 0.91 0.91 0.91 0.91
0.27 0.26 0.27 0.36 0.38 0.41 0.24 0.25 0.42 0.43 0.40 0.38 0.33 0.35 0.41 0.48 0.51 0.53 0.51 0.51 0.51 0.51 0.49 0.48 0.52 0.51 0.49 0.49 0.56 0.65 0.68 0.71 0.73 0.74 0.77 0.78 0.81 0.80 0.83 0.85 0.85 0.84 0.82 0.84
0.26 0.23 0.19 0.37 0.32 0.23 0.34 0.42 0.43 0.44 0.44 0.42 0.42 0.43 0.43 0.43 0.44 0.47 0.47 0.48 0.48 0.46 0.46 0.46 0.47 0.49 0.45 0.45 0.48 0.52 0.59 0.67 0.69 0.70 0.72 0.72 0.72 0.75 0.77 0.78 0.75 0.74 0.75 0.74
0.25 0.25 0.37 0.38 0.37 0.42 0.43 0.40 0.42 0.43 0.44 0.43 0.42 0.41 0.41 0.42 0.43 0.42 0.42 0.43 0.43 0.42 0.41 0.44 0.44 0.43 0.41 0.43 0.45 0.45 0.46 0.49 0.54 0.62 0.67 0.67 0.68 0.68 0.69 0.70 0.69 0.67 0.66 0.66
0.28 0.31 0.34 0.37 0.41 0.44 0.45 0.43 0.44 0.44 0.45 0.45 0.41 0.42 0.41 0.40 0.39 0.39 0.40 0.41 0.41 0.41 0.40 0.40 0.42 0.43 0.44 0.45 0.45 0.44 0.43 0.43 0.44 0.47 0.49 0.53 0.58 0.61 0.62 0.63 0.62 0.64 0.63 0.63
0.28 0.33 0.35 0.38 0.40 0.42 0.43 0.44 0.43 0.43 0.42 0.42 0.41 0.40 0.40 0.39 0.39 0.39 0.39 0.40 0.40 0.39 0.38 0.38 0.40 0.42 0.44 0.45 0.45 0.43 0.43 0.43 0.41 0.40 0.41 0.44 0.46 0.47 0.48 0.53 0.55 0.55 0.57 0.59
0.25 0.35 0.34 0.35 0.41 0.43 0.41 0.40 0.41 0.40 0.38 0.39 0.39 0.37 0.38 0.37 0.38 0.38 0.37 0.37 0.37 0.37 0.36 0.36 0.37 0.38 0.40 0.42 0.42 0.42 0.41 0.42 0.42 0.41 0.40 0.39 0.39 0.40 0.44 0.45 0.46 0.48 0.49 0.49
0.35 0.41 0.41 0.42 0.43 0.43 0.39 0.38 0.39 0.39 0.39 0.37 0.38 0.38 0.37 0.36 0.36 0.36 0.36 0.36 0.35 0.34 0.34 0.34 0.34 0.35 0.37 0.39 0.39 0.38 0.37 0.38 0.40 0.40 0.40 0.40 0.38 0.37 0.37 0.40 0.42 0.42 0.43 0.43
0.44 0.43 0.38 0.41 0.37 0.40 0.39 0.39 0.38 0.38 0.38 0.38 0.37 0.37 0.36 0.35 0.34 0.34 0.34 0.34 0.34 0.34 0.34 0.33 0.34 0.34 0.36 0.36 0.35 0.36 0.37 0.37 0.37 0.37 0.37 0.38 0.38 0.37 0.37 0.35 0.34 0.36 0.39 0.39
0.39 0.39 0.38 0.37 0.34 0.34 0.35 0.35 0.35 0.34 0.34 0.33 0.34 0.33 0.33 0.32 0.31 0.31 0.32 0.32 0.31 0.31 0.29 0.30 0.30 0.31 0.34 0.35 0.35 0.33 0.34 0.35 0.36 0.35 0.36 0.36 0.36 0.36 0.35 0.34 0.33 0.34 0.35 0.36
0.34 0.34 0.32 0.31 0.31 0.33 0.34 0.34 0.32 0.32 0.31 0.31 0.30 0.30 0.30 0.30 0.29 0.29 0.29 0.28 0.27 0.26 0.27 0.27 0.27 0.28 0.30 0.31 0.31 0.32 0.31 0.32 0.32 0.32 0.33 0.32 0.32 0.31 0.30 0.29 0.27 0.27 0.28 0.29
0.30 0.27 0.29 0.31 0.32 0.32 0.30 0.30 0.30 0.29 0.28 0.27 0.27 0.27 0.26 0.25 0.23 0.23 0.23 0.23 0.23 0.22 0.20 0.20 0.20 0.22 0.22 0.24 0.25 0.26 0.27 0.27 0.27 0.26 0.26 0.26 0.26 0.25 0.25 0.23 0.21 0.20 0.21 0.23
0.34 0.35 0.36 0.35 0.32 0.30 0.29 0.29 0.27 0.25 0.23 0.22 0.22 0.21 0.20 0.19 0.18 0.18 0.19 0.20 0.21 0.19 0.18 0.18 0.19 0.19 0.18 0.20 0.22 0.23 0.23 0.23 0.22 0.20 0.20 0.21 0.21 0.20 0.20 0.20 0.19 0.18 0.18 0.19
0.35 0.33 0.32 0.31 0.31 0.28 0.25 0.22 0.21 0.21 0.21 0.20 0.19 0.18 0.17 0.16 0.15 0.16 0.17 0.17 0.16 0.16 0.16 0.17 0.18 0.18 0.17 0.18 0.20 0.21 0.20 0.20 0.20 0.20 0.21 0.19 0.17 0.19 0.19 0.18 0.17 0.17 0.16 0.16
0.31 0.31 0.29 0.25 0.24 0.21 0.20 0.20 0.19 0.18 0.19 0.18 0.17 0.15 0.14 0.14 0.14 0.13 0.15 0.15 0.15 0.15 0.15 0.16 0.14 0.13 0.14 0.15 0.18 0.18 0.18 0.18 0.19 0.18 0.18 0.18 0.18 0.17 0.16 0.17 0.17 0.16 0.16 0.15
0.26 0.23 0.21 0.19 0.18 0.19 0.18 0.18 0.18 0.16 0.16 0.15 0.14 0.13 0.14 0.15 0.15 0.15 0.13 0.13 0.13 0.14 0.14 0.13 0.12 0.11 0.10 0.13 0.15 0.15 0.15 0.15 0.16 0.16 0.16 0.16 0.16 0.16 0.16 0.15 0.15 0.15 0.14 0.14
0.19 0.18 0.18 0.18 0.18 0.17 0.18 0.18 0.17 0.16 0.15 0.14 0.14 0.14 0.14 0.13 0.13 0.13 0.13 0.11 0.12 0.12 0.12 0.11 0.10 0.08 0.08 0.11 0.12 0.12 0.12 0.12 0.13 0.13 0.13 0.13 0.13 0.13 0.13 0.13 0.13 0.13 0.13 0.13
0.19 0.19 0.18 0.18 0.17 0.17 0.18 0.17 0.16 0.15 0.14 0.13 0.12 0.12 0.11 0.11 0.12 0.11 0.10 0.12 0.12 0.10 0.11 0.10 0.09 0.08 0.09 0.10 0.10 0.10 0.11 0.11 0.11 0.11 0.11 0.11 0.11 0.11 0.11 0.10 0.11 0.11 0.10 0.10
0.19 0.18 0.18 0.19 0.18 0.17 0.16 0.16 0.15 0.15 0.15 0.15 0.15 0.14 0.13 0.12 0.13 0.14 0.13 0.12 0.11 0.10 0.10 0.10 0.09 0.08 0.09 0.10 0.10 0.09 0.10 0.11 0.10 0.10 0.11 0.11 0.10 0.10 0.10 0.09 0.09 0.10 0.10 0.09
0.19 0.19 0.18 0.18 0.18 0.18 0.19 0.19 0.18 0.18 0.17 0.16 0.17 0.17 0.15 0.15 0.13 0.13 0.13 0.12 0.11 0.11 0.10 0.10 0.10 0.10 0.09 0.10 0.11 0.10 0.09 0.10 0.10 0.09 0.09 0.10 0.10 0.10 0.10 0.10 0.09 0.09 0.08 0.08
0.19 0.19 0.20 0.19 0.17 0.16 0.16 0.15 0.14 0.15 0.15 0.14 0.14 0.15 0.16 0.17 0.15 0.14 0.13 0.13 0.12 0.11 0.11 0.11 0.11 0.11 0.11 0.10 0.11 0.10 0.10 0.10 0.10 0.11 0.10 0.10 0.10 0.10 0.10 0.10 0.09 0.09 0.09 0.09
0.19 0.18 0.18 0.18 0.19 0.18 0.16 0.15 0.14 0.13 0.13 0.12 0.11 0.12 0.11 0.13 0.15 0.14 0.13 0.12 0.12 0.12 0.13 0.13 0.13 0.13 0.12 0.12 0.11 0.10 0.10 0.11 0.11 0.11 0.10 0.09 0.09 0.09 0.10 0.10 0.10 0.09 0.09 0.09

GFSNGP_prec_pwat_108.txt.gz
Precipitable_Water
0.41 0.42 0.43 0.41 0.41 0.44 0.41 0.42 0.32 0.35 0.36 0.42 0.45 0.46 0.48 0.50 0.51 0.49 0.47 0.49 0.52 0.55 0.57 0.60 0.63 0.67 0.71 0.77 0.83 0.92 0.86 0.94 1.02 1.03 1.06 1.08 1.26 1.27 1.38 1.25 1.22 1.20 1.16 1.07
0.35 0.40 0.41 0.37 0.40 0.42 0.42 0.41 0.39 0.39 0.37 0.48 0.49 0.50 0.47 0.47 0.48 0.45 0.45 0.45 0.47 0.50 0.54 0.58 0.60 0.63 0.68 0.71 0.74 0.81 0.87 0.87 0.90 1.04 0.98 1.01 0.99 1.06 1.15 1.19 1.22 1.17 1.13 1.03
0.28 0.38 0.37 0.28 0.35 0.38 0.40 0.42 0.40 0.32 0.38 0.45 0.44 0.45 0.44 0.45 0.47 0.45 0.45 0.45 0.46 0.48 0.50 0.53 0.58 0.62 0.63 0.67 0.72 0.73 0.77 0.82 0.85 0.93 0.98 0.96 1.01 1.14 1.15 1.19 1.18 1.12 1.08 1.06
0.29 0.32 0.20 0.33 0.44 0.43 0.37 0.38 0.39 0.39 0.41 0.42 0.41 0.43 0.45 0.48 0.48 0.48 0.47 0.46 0.47 0.49 0.51 0.52 0.55 0.59 0.64 0.66 0.67 0.69 0.72 0.77 0.81 0.82 0.84 0.89 0.89 0.88 1.05 1.03 0.98 1.05 1.04 1.04
0.28 0.27 0.31 0.34 0.38 0.37 0.35 0.33 0.41 0.38 0.39 0.39 0.42 0.43 0.40 0.48 0.51 0.49 0.49 0.48 0.48 0.49 0.49 0.51 0.51 0.53 0.56 0.62 0.63 0.63 0.65 0.67 0.74 0.81 0.82 0.82 0.78 0.77 0.89 0.85 0.97 0.93 0.95 0.99
0.32 0.24 0.21 0.31 0.38 0.45 0.42 0.25 0.41 0.41 0.40 0.38 0.40 0.28 0.32 0.44 0.48 0.49 0.50 0.48 0.47 0.48 0.48 0.47 0.49 0.50 0.48 0.47 0.51 0.56 0.61 0.64 0.69 0.73 0.73 0.75 0.81 0.79 0.83 0.83 0.86 0.86 0.89 0.90
0.29 0.25 0.27 0.36 0.41 0.45 0.24 0.25 0.40 0.41 0.40 0.39 0.35 0.37 0.40 0.43 0.44 0.47 0.46 0.46 0.46 0.46 0.45 0.45 0.47 0.47 0.44 0.43 0.43 0.46 0.54 0.62 0.65 0.68 0.71 0.74 0.75 0.76 0.77 0.80 0.81 0.80 0.81 0.85
0.27 0.23 0.19 0.38 0.34 0.26 0.33 0.42 0.42 0.42 0.42 0.40 0.40 0.40 0.41 0.42 0.41 0.41 0.41 0.42 0.43 0.41 0.41 0.43 0.44 0.43 0.40 0.39 0.41 0.43 0.44 0.46 0.52 0.61 0.66 0.69 0.69 0.71 0.73 0.73 0.72 0.72 0.75 0.76
0.26 0.26 0.37 0.39 0.36 0.41 0.42 0.40 0.41 0.41 0.42 0.40 0.39 0.38 0.38 0.38 0.39 0.39 0.40 0.40 0.40 0.39 0.39 0.41 0.42 0.42 0.40 0.42 0.43 0.41 0.41 0.42 0.45 0.47 0.51 0.57 0.63 0.65 0.66 0.67 0.66 0.67 0.68 0.67
0.28 0.32 0.34 0.37 0.40 0.42 0.43 0.41 0.42 0.43 0.44 0.43 0.40 0.40 0.39 0.39 0.38 0.38 0.39 0.38 0.38 0.38 0.37 0.37 0.39 0.40 0.42 0.44 0.45 0.44 0.41 0.39 0.40 0.41 0.42 0.45 0.48 0.51 0.54 0.58 0.60 0.61 0.61 0.61
0.28 0.32 0.34 0.36 0.39 0.40 0.40 0.42 0.40 0.41 0.40 0.39 0.37 0.36 0.36 0.36 0.36 0.37 0.37 0.37 0.37 0.35 0.35 0.35 0.37 0.38 0.39 0.41 0.41 0.39 0.39 0.40 0.39 0.39 0.39 0.40 0.42 0.44 0.45 0.47 0.48 0.47 0.51 0.55
0.26 0.35 0.34 0.34 0.39 0.40 0.38 0.38 0.39 0.38 0.37 0.38 0.38 0.36 0.36 0.35 0.35 0.35 0.34 0.35 0.34 0.34 0.33 0.34 0.34 0.35 0.36 0.37 0.38 0.36 0.35 0.36 0.36 0.36 0.35 0.36 0.38 0.39 0.43 0.43 0.45 0.46 0.47 0.46
0.35 0.41 0.39 0.40 0.41 0.40 0.36 0.37 0.38 0.37 0.37 0.36 0.37 0.36 0.36 0.35 0.35 0.35 0.34 0.34 0.33 0.32 0.32 0.33 0.33 0.33 0.34 0.36 0.36 0.35 0.34 0.34 0.35 0.35 0.35 0.33 0.33 0.33 0.33 0.38 0.40 0.40 0.42 0.43
0.42 0.41 0.36 0.38 0.33 0.36 0.35 0.35 0.36 0.37 0.37 0.35 0.34 0.33 0.33 0.32 0.32 0.32 0.32 0.32 0.32 0.31 0.30 0.31 0.31 0.31 0.33 0.34 0.34 0.34 0.35 0.35 0.34 0.34 0.34 0.34 0.33 0.32 0.32 0.31 0.32 0.34 0.37 0.39
0.40 0.38 0.35 0.34 0.33 0.32 0.33 0.33 0.32 0.32 0.32 0.32 0.32 0.31 0.30 0.29 0.28 0.29 0.29 0.30 0.28 0.27 0.27 0.26 0.27 0.28 0.31 0.31 0.31 0.31 0.32 0.32 0.33 0.33 0.33 0.33 0.33 0.32 0.31 0.30 0.30 0.31 0.32 0.33
0.33 0.33 0.32 0.30 0.31 0.33 0.33 0.32 0.31 0.30 0.30 0.29 0.29 0.29 0.28 0.26 0.25 0.24 0.23 0.23 0.21 0.20 0.19 0.20 0.20 0.21 0.24 0.25 0.25 0.26 0.26 0.26 0.27 0.27 0.28 0.29 0.28 0.27 0.26 0.25 0.25 0.26 0.26 0.26
0.30 0.28 0.28 0.30 0.31 0.31 0.30 0.29 0.28 0.27 0.26 0.24 0.23 0.22 0.22 0.21 0.20 0.19 0.19 0.20 0.19 0.18 0.17 0.17 0.17 0.17 0.18 0.21 0.22 0.22 0.22 0.22 0.21 0.21 0.22 0.22 0.22 0.21 0.21 0.20 0.20 0.20 0.21 0.21
0.34 0.36 0.36 0.35 0.32 0.30 0.28 0.27 0.24 0.21 0.20 0.20 0.19 0.19 0.18 0.17 0.15 0.15 0.16 0.17 0.17 0.16 0.15 0.16 0.16 0.15 0.15 0.18 0.19 0.20 0.20 0.20 0.20 0.19 0.20 0.20 0.20 0.20 0.19 0.18 0.18 0.17 0.17 0.17
0.35 0.33 0.33 0.32 0.29 0.25 0.22 0.20 0.19 0.19 0.19 0.18 0.17 0.15 0.14 0.13 0.13 0.14 0.15 0.14 0.13 0.13 0.13 0.14 0.14 0.13 0.13 0.15 0.17 0.17 0.17 0.16 0.17 0.18 0.18 0.17 0.18 0.19 0.18 0.18 0.17 0.17 0.16 0.16
0.32 0.31 0.28 0.25 0.23 0.20 0.18 0.18 0.18 0.17 0.17 0.17 0.15 0.14 0.13 0.14 0.14 0.13 0.14 0.14 0.14 0.13 0.14 0.14 0.13 0.11 0.10 0.13 0.14 0.14 0.14 0.15 0.15 0.15 0.15 0.15 0.15 0.15 0.16 0.16 0.16 0.15 0.15 0.15
0.25 0.22 0.20 0.18 0.18 0.18 0.18 0.18 0.17 0.16 0.15 0.15 0.13 0.14 0.14 0.15 0.15 0.14 0.13 0.11 0.12 0.13 0.12 0.11 0.10 0.09 0.09 0.11 0.12 0.12 0.12 0.12 0.12 0.12 0.13 0.13 0.13 0.14 0.14 0.14 0.14 0.14 0.14 0.13
0.18 0.18 0.18 0.17 0.17 0.17 0.18 0.17 0.17 0.15 0.14 0.14 0.13 0.13 0.13 0.12 0.13 0.13 0.13 0.12 0.12 0.12 0.11 0.10 0.09 0.08 0.09 0.11 0.11 0.11 0.11 0.10 0.11 0.11 0.11 0.11 0.12 0.12 0.12 0.12 0.12 0.12 0.12 0.12
0.18 0.18 0.18 0.18 0.17 0.17 0.17 0.17 0.15 0.15 0.14 0.14 0.14 0.13 0.13 0.13 0.14 0.12 0.11 0.13 0.12 0.11 0.10 0.10 0.10 0.09 0.09 0.11 0.10 0.09 0.10 0.10 0.10 0.10 0.10 0.10 0.10 0.10 0.10 0.10 0.10 0.11 0.10 0.10
0.18 0.18 0.18 0.19 0.19 0.17 0.16 0.17 0.17 0.16 0.16 0.16 0.16 0.16 0.16 0.14 0.14 0.15 0.14 0.13 0.12 0.11 0.10 0.10 0.10 0.09 0.09 0.10 0.10 0.09 0.09 0.10 0.10 0.09 0.10 0.10 0.10 0.10 0.10 0.09 0.09 0.09 0.09 0.09
0.18 0.18 0.17 0.17 0.17 0.17 0.18 0.18 0.18 0.16 0.16 0.16 0.16 0.17 0.16 0.16 0.14 0.14 0.14 0.13 0.12 0.11 0.11 0.10 0.10 0.10 0.10 0.10 0.10 0.10 0.09 0.10 0.09 0.09 0.10 0.10 0.10 0.10 0.10 0.10 0.09 0.09 0.09 0.08
0.17 0.17 0.18 0.18 0.17 0.18 0.17 0.18 0.16 0.16 0.15 0.14 0.14 0.13 0.13 0.13 0.14 0.15 0.14 0.13 0.13 0.12 0.11 0.11 0.11 0.11 0.11 0.11 0.10 0.10 0.10 0.10 0.10 0.10 0.10 0.10 0.10 0.09 0.10 0.10 0.10 0.09 0.09 0.09
0.18 0.18 0.18 0.19 0.20 0.19 0.18 0.17 0.16 0.15 0.14 0.13 0.11 0.12 0.12 0.11 0.13 0.14 0.14 0.13 0.12 0.12 0.12 0.12 0.12 0.12 0.12 0.11 0.11 0.11 0.10 0.10 0.10 0.10 0.10 0.10 0.10 0.09 0.09 0.10 0.10 0.10 0.09 0.09

GFSNGP_prec_pwat_111.txt.gz
Precipitable_Water
0.36 0.39 0.40 0.38 0.39 0.43 0.37 0.38 0.30 0.33 0.33 0.38 0.43 0.46 0.49 0.52 0.51 0.48 0.46 0.46 0.48 0.51 0.56 0.59 0.60 0.62 0.65 0.66 0.69 0.74 0.80 0.89 0.90 0.91 0.96 1.05 1.05 1.04 1.11 1.24 1.33 1.35 1.35 1.38
0.34 0.39 0.38 0.34 0.38 0.40 0.40 0.39 0.37 0.37 0.34 0.44 0.48 0.50 0.49 0.50 0.51 0.48 0.47 0.48 0.49 0.50 0.50 0.52 0.57 0.58 0.62 0.66 0.68 0.72 0.75 0.80 0.88 0.89 0.92 0.97 0.98 0.98 0.98 1.04 1.10 1.25 1.23 1.27
0.28 0.36 0.34 0.26 0.33 0.37 0.38 0.40 0.39 0.32 0.38 0.43 0.41 0.43 0.44 0.46 0.47 0.47 0.46 0.46 0.46 0.47 0.48 0.49 0.51 0.57 0.59 0.62 0.66 0.68 0.69 0.71 0.79 0.82 0.85 0.88 0.94 0.99 0.97 1.05 1.09 1.16 1.15 1.15
0.30 0.34 0.20 0.32 0.42 0.41 0.35 0.36 0.40 0.38 0.38 0.40 0.40 0.42 0.45 0.47 0.46 0.46 0.45 0.44 0.45 0.45 0.46 0.47 0.51 0.53 0.57 0.60 0.62 0.63 0.64 0.67 0.71 0.75 0.79 0.83 0.87 0.89 0.93 0.89 0.91 1.03 1.00 1.01
0.28 0.26 0.30 0.33 0.37 0.36 0.34 0.33 0.40 0.38 0.38 0.39 0.40 0.42 0.39 0.46 0.48 0.46 0.45 0.45 0.45 0.46 0.45 0.46 0.47 0.48 0.48 0.49 0.52 0.56 0.59 0.61 0.64 0.69 0.72 0.75 0.76 0.82 0.86 0.86 0.91 0.92 0.94 0.98
0.31 0.23 0.20 0.31 0.40 0.45 0.41 0.26 0.39 0.39 0.38 0.39 0.40 0.30 0.34 0.44 0.46 0.44 0.44 0.43 0.43 0.44 0.45 0.44 0.45 0.47 0.44 0.42 0.43 0.42 0.47 0.55 0.61 0.64 0.65 0.67 0.71 0.76 0.79 0.79 0.79 0.84 0.88 0.90
0.28 0.25 0.28 0.37 0.44 0.46 0.25 0.26 0.40 0.40 0.40 0.40 0.36 0.37 0.40 0.41 0.41 0.41 0.41 0.40 0.41 0.41 0.41 0.42 0.43 0.43 0.41 0.39 0.37 0.40 0.42 0.43 0.47 0.54 0.59 0.62 0.65 0.68 0.71 0.73 0.74 0.76 0.77 0.81
0.28 0.23 0.19 0.38 0.38 0.27 0.34 0.41 0.41 0.41 0.40 0.38 0.39 0.40 0.39 0.39 0.39 0.40 0.40 0.40 0.40 0.39 0.39 0.40 0.41 0.40 0.38 0.38 0.40 0.39 0.40 0.41 0.43 0.44 0.46 0.51 0.57 0.61 0.64 0.67 0.67 0.68 0.71 0.72
0.28 0.26 0.36 0.40 0.36 0.40 0.42 0.39 0.41 0.40 0.40 0.40 0.38 0.38 0.38 0.38 0.38 0.38 0.38 0.37 0.38 0.38 0.38 0.39 0.40 0.40 0.37 0.39 0.42 0.41 0.39 0.38 0.39 0.41 0.42 0.44 0.44 0.47 0.50 0.57 0.61 0.62 0.63 0.65
0.28 0.32 0.34 0.37 0.40 0.41 0.42 0.40 0.42 0.44 0.42 0.41 0.36 0.36 0.36 0.37 0.37 0.36 0.36 0.35 0.35 0.35 0.34 0.34 0.36 0.36 0.36 0.38 0.39 0.38 0.37 0.36 0.36 0.37 0.37 0.40 0.41 0.43 0.43 0.45 0.46 0.51 0.54 0.57
0.29 0.33 0.35 0.37 0.38 0.39 0.40 0.40 0.40 0.40 0.39 0.37 0.36 0.35 0.34 0.33 0.34 0.34 0.33 0.33 0.33 0.33 0.32 0.32 0.34 0.34 0.35 0.35 0.36 0.34 0.34 0.34 0.33 0.33 0.33 0.34 0.36 0.38 0.39 0.42 0.44 0.45 0.45 0.47
0.27 0.35 0.34 0.35 0.39 0.39 0.38 0.37 0.38 0.36 0.36 0.37 0.36 0.34 0.35 0.33 0.34 0.33 0.32 0.33 0.32 0.31 0.31 0.32 0.32 0.32 0.33 0.35 0.35 0.34 0.33 0.33 0.33 0.32 0.31 0.31 0.32 0.32 0.36 0.37 0.39 0.41 0.44 0.44
0.36 0.41 0.40 0.40 0.41 0.39 0.36 0.36 0.36 0.35 0.35 0.33 0.33 0.33 0.32 0.31 0.32 0.32 0.31 0.30 0.29 0.29 0.29 0.30 0.31 0.31 0.32 0.32 0.33 0.32 0.31 0.32 0.32 0.33 0.33 0.31 0.30 0.30 0.29 0.32 0.35 0.36 0.37 0.38
0.42 0.40 0.36 0.36 0.33 0.34 0.33 0.33 0.33 0.33 0.33 0.32 0.31 0.30 0.30 0.29 0.29 0.29 0.28 0.28 0.27 0.26 0.25 0.25 0.26 0.26 0.28 0.29 0.29 0.29 0.30 0.30 0.30 0.30 0.31 0.31 0.30 0.30 0.30 0.29 0.29 0.30 0.34 0.34
0.39 0.40 0.35 0.33 0.32 0.31 0.33 0.33 0.32 0.31 0.31 0.30 0.30 0.28 0.28 0.26 0.25 0.24 0.24 0.22 0.20 0.19 0.18 0.18 0.18 0.19 0.22 0.23 0.23 0.23 0.23 0.23 0.24 0.25 0.26 0.26 0.26 0.25 0.26 0.26 0.27 0.27 0.29 0.29
0.33 0.33 0.32 0.30 0.29 0.32 0.32 0.31 0.29 0.28 0.28 0.27 0.26 0.24 0.22 0.21 0.20 0.19 0.19 0.19 0.17 0.15 0.16 0.16 0.15 0.16 0.18 0.20 0.20 0.20 0.20 0.20 0.20 0.20 0.21 0.21 0.20 0.20 0.20 0.20 0.20 0.20 0.21 0.22
0.30 0.29 0.29 0.28 0.30 0.31 0.30 0.28 0.27 0.25 0.23 0.20 0.20 0.20 0.19 0.18 0.17 0.16 0.16 0.17 0.16 0.15 0.15 0.14 0.14 0.14 0.14 0.17 0.17 0.17 0.18 0.18 0.17 0.17 0.18 0.18 0.18 0.17 0.17 0.17 0.17 0.17 0.17 0.18
0.35 0.36 0.36 0.34 0.32 0.29 0.26 0.23 0.20 0.19 0.18 0.18 0.18 0.17 0.16 0.14 0.13 0.14 0.14 0.15 0.14 0.14 0.14 0.14 0.14 0.13 0.12 0.14 0.15 0.16 0.16 0.16 0.16 0.16 0.16 0.16 0.17 0.17 0.16 0.16 0.16 0.16 0.16 0.16
0.35 0.34 0.33 0.31 0.28 0.23 0.21 0.19 0.18 0.18 0.17 0.16 0.15 0.13 0.13 0.13 0.12 0.13 0.14 0.14 0.13 0.12 0.13 0.14 0.13 0.12 0.11 0.13 0.13 0.14 0.14 0.14 0.14 0.14 0.14 0.14 0.14 0.15 0.15 0.15 0.15 0.15 0.15 0.15
0.32 0.31 0.27 0.24 0.22 0.19 0.17 0.17 0.17 0.17 0.17 0.16 0.14 0.13 0.14 0.14 0.14 0.14 0.14 0.12 0.12 0.12 0.12 0.12 0.11 0.10 0.09 0.11 0.12 0.12 0.12 0.12 0.12 0.12 0.12 0.12 0.12 0.13 0.13 0.13 0.13 0.13 0.13 0.13
0.24 0.21 0.19 0.18 0.17 0.17 0.17 0.17 0.17 0.16 0.15 0.15 0.14 0.13 0.13 0.13 0.13 0.13 0.12 0.11 0.12 0.13 0.12 0.12 0.10 0.09 0.09 0.10 0.11 0.11 0.11 0.11 0.11 0.11 0.11 0.11 0.11 0.11 0.11 0.12 0.12 0.12 0.12 0.12
0.18 0.18 0.17 0.17 0.17 0.17 0.18 0.17 0.16 0.15 0.14 0.13 0.12 0.12 0.12 0.12 0.13 0.13 0.14 0.13 0.13 0.13 0.12 0.11 0.10 0.10 0.09 0.10 0.10 0.10 0.10 0.10 0.10 0.10 0.10 0.10 0.10 0.10 0.10 0.10 0.10 0.10 0.11 0.11
0.17 0.17 0.17 0.17 0.16 0.16 0.17 0.16 0.15 0.15 0.14 0.14 0.14 0.14 0.14 0.14 0.14 0.13 0.12 0.15 0.14 0.13 0.12 0.11 0.10 0.10 0.09 0.10 0.10 0.09 0.09 0.09 0.09 0.10 0.10 0.09 0.09 0.10 0.10 0.10 0.10 0.10 0.10 0.10
0.17 0.17 0.17 0.18 0.17 0.16 0.15 0.16 0.17 0.17 0.16 0.16 0.16 0.16 0.15 0.15 0.15 0.16 0.17 0.15 0.14 0.12 0.11 0.10 0.10 0.10 0.09 0.09 0.09 0.10 0.09 0.09 0.09 0.09 0.09 0.09 0.10 0.10 0.10 0.09 0.09 0.09 0.09 0.09
0.17 0.17 0.17 0.16 0.16 0.15 0.16 0.18 0.18 0.18 0.17 0.17 0.17 0.16 0.15 0.15 0.13 0.13 0.15 0.15 0.14 0.12 0.11 0.11 0.11 0.11 0.10 0.10 0.10 0.10 0.10 0.10 0.10 0.10 0.10 0.10 0.10 0.10 0.10 0.10 0.10 0.10 0.09 0.09
0.17 0.16 0.16 0.16 0.16 0.16 0.17 0.17 0.16 0.17 0.16 0.15 0.15 0.14 0.13 0.13 0.12 0.13 0.14 0.14 0.14 0.12 0.12 0.11 0.11 0.11 0.11 0.11 0.11 0.11 0.10 0.10 0.10 0.10 0.10 0.10 0.10 0.10 0.09 0.09 0.10 0.10 0.09 0.09
0.18 0.18 0.17 0.17 0.18 0.18 0.18 0.17 0.17 0.16 0.16 0.15 0.13 0.13 0.13 0.13 0.12 0.12 0.12 0.13 0.13 0.13 0.13 0.13 0.13 0.13 0.13 0.12 0.12 0.11 0.11 0.11 0.11 0.10 0.10 0.10 0.10 0.10 0.09 0.09 0.09 0.10 0.10 0.09

GFSNGP_prec_pwat_114.txt.gz
Precipitable_Water
0.36 0.36 0.36 0.36 0.37 0.39 0.33 0.34 0.27 0.30 0.31 0.35 0.40 0.42 0.45 0.48 0.49 0.50 0.50 0.52 0.51 0.53 0.59 0.62 0.64 0.65 0.66 0.68 0.70 0.71 0.73 0.78 0.81 0.85 0.87 0.90 0.98 1.04 1.07 1.09 1.12 1.14 1.17 1.27
0.32 0.37 0.36 0.33 0.37 0.37 0.37 0.36 0.34 0.34 0.32 0.41 0.44 0.47 0.47 0.48 0.49 0.48 0.49 0.48 0.49 0.49 0.49 0.54 0.58 0.60 0.62 0.64 0.67 0.70 0.69 0.70 0.75 0.81 0.86 0.87 0.94 0.93 1.00 1.03 1.05 1.05 1.07 1.13
0.27 0.35 0.31 0.27 0.32 0.35 0.36 0.38 0.37 0.30 0.35 0.41 0.40 0.42 0.44 0.46 0.48 0.47 0.46 0.46 0.46 0.47 0.47 0.48 0.49 0.54 0.56 0.60 0.63 0.64 0.66 0.69 0.71 0.74 0.79 0.84 0.88 0.87 0.86 0.91 0.93 0.92 0.95 0.98
0.29 0.32 0.20 0.32 0.41 0.39 0.35 0.36 0.38 0.37 0.37 0.38 0.39 0.42 0.43 0.47 0.45 0.44 0.44 0.44 0.44 0.44 0.44 0.45 0.47 0.48 0.50 0.52 0.55 0.57 0.60 0.62 0.66 0.69 0.72 0.76 0.80 0.81 0.83 0.86 0.90 0.94 0.96 0.96
0.27 0.26 0.29 0.33 0.36 0.35 0.33 0.31 0.38 0.38 0.39 0.39 0.40 0.42 0.39 0.44 0.44 0.43 0.41 0.41 0.42 0.43 0.44 0.45 0.45 0.45 0.44 0.44 0.45 0.46 0.47 0.51 0.58 0.62 0.65 0.68 0.69 0.74 0.78 0.80 0.83 0.87 0.89 0.89
0.29 0.23 0.20 0.30 0.39 0.43 0.41 0.26 0.39 0.39 0.38 0.39 0.41 0.31 0.33 0.41 0.42 0.41 0.41 0.41 0.40 0.41 0.41 0.41 0.41 0.43 0.42 0.40 0.40 0.39 0.41 0.42 0.47 0.51 0.55 0.60 0.64 0.66 0.70 0.73 0.73 0.80 0.81 0.84
0.28 0.24 0.27 0.37 0.43 0.46 0.24 0.26 0.39 0.39 0.38 0.37 0.34 0.35 0.38 0.40 0.39 0.40 0.39 0.39 0.40 0.39 0.38 0.39 0.40 0.39 0.37 0.37 0.36 0.38 0.40 0.41 0.43 0.44 0.45 0.47 0.52 0.59 0.62 0.64 0.66 0.68 0.72 0.74
0.28 0.23 0.21 0.41 0.41 0.28 0.34 0.40 0.39 0.38 0.38 0.36 0.37 0.37 0.37 0.38 0.37 0.37 0.36 0.37 0.37 0.37 0.37 0.39 0.39 0.38 0.37 0.36 0.39 0.39 0.39 0.39 0.39 0.40 0.41 0.42 0.43 0.45 0.48 0.52 0.57 0.59 0.60 0.62
0.29 0.27 0.38 0.41 0.38 0.42 0.43 0.40 0.40 0.39 0.39 0.37 0.36 0.36 0.37 0.36 0.36 0.37 0.36 0.35 0.36 0.35 0.34 0.35 0.36 0.35 0.33 0.35 0.37 0.37 0.36 0.35 0.35 0.36 0.37 0.39 0.39 0.40 0.40 0.42 0.43 0.45 0.48 0.52
0.31 0.34 0.36 0.38 0.41 0.42 0.41 0.40 0.42 0.41 0.39 0.37 0.34 0.34 0.33 0.33 0.33 0.33 0.33 0.32 0.33 0.32 0.32 0.32 0.33 0.34 0.33 0.34 0.35 0.35 0.33 0.33 0.32 0.32 0.32 0.33 0.34 0.35 0.35 0.36 0.37 0.38 0.39 0.41
0.31 0.35 0.37 0.38 0.40 0.40 0.39 0.40 0.40 0.40 0.39 0.37 0.36 0.34 0.34 0.33 0.32 0.32 0.32 0.32 0.31 0.31 0.30 0.30 0.31 0.31 0.32 0.33 0.33 0.31 0.32 0.32 0.32 0.31 0.31 0.31 0.32 0.33 0.32 0.34 0.34 0.33 0.34 0.36
0.28 0.36 0.36 0.36 0.40 0.41 0.39 0.37 0.37 0.35 0.35 0.35 0.34 0.32 0.32 0.31 0.32 0.31 0.30 0.29 0.28 0.28 0.29 0.29 0.29 0.29 0.30 0.31 0.31 0.30 0.29 0.30 0.30 0.30 0.29 0.29 0.29 0.29 0.33 0.34 0.34 0.34 0.34 0.34
0.37 0.42 0.41 0.41 0.40 0.39 0.36 0.35 0.34 0.33 0.32 0.30 0.31 0.30 0.30 0.29 0.29 0.29 0.28 0.26 0.25 0.24 0.23 0.22 0.23 0.23 0.24 0.25 0.25 0.24 0.23 0.24 0.25 0.25 0.26 0.26 0.26 0.26 0.25 0.28 0.31 0.32 0.33 0.33
0.43 0.41 0.38 0.38 0.34 0.35 0.34 0.33 0.33 0.33 0.32 0.31 0.29 0.29 0.28 0.27 0.26 0.25 0.23 0.21 0.20 0.19 0.18 0.17 0.16 0.17 0.20 0.21 0.21 0.21 0.21 0.20 0.20 0.20 0.21 0.21 0.21 0.20 0.21 0.22 0.23 0.24 0.27 0.29
0.40 0.42 0.36 0.35 0.34 0.32 0.34 0.34 0.31 0.30 0.29 0.28 0.28 0.26 0.24 0.21 0.20 0.19 0.19 0.18 0.16 0.15 0.15 0.15 0.14 0.14 0.16 0.18 0.18 0.18 0.18 0.17 0.17 0.18 0.18 0.18 0.18 0.17 0.17 0.17 0.17 0.18 0.19 0.21
0.34 0.34 0.33 0.31 0.30 0.31 0.32 0.31 0.28 0.26 0.26 0.24 0.22 0.20 0.19 0.18 0.17 0.16 0.16 0.16 0.14 0.13 0.14 0.13 0.12 0.12 0.13 0.14 0.15 0.16 0.16 0.16 0.16 0.16 0.16 0.16 0.15 0.15 0.15 0.14 0.14 0.14 0.14 0.14
0.30 0.29 0.30 0.29 0.30 0.31 0.29 0.28 0.25 0.21 0.19 0.18 0.18 0.18 0.17 0.15 0.14 0.14 0.14 0.15 0.14 0.14 0.14 0.13 0.12 0.13 0.13 0.13 0.14 0.14 0.15 0.15 0.15 0.15 0.14 0.15 0.14 0.14 0.14 0.14 0.14 0.13 0.13 0.14
0.35 0.35 0.35 0.34 0.31 0.29 0.24 0.21 0.19 0.18 0.16 0.17 0.16 0.16 0.13 0.12 0.12 0.13 0.14 0.14 0.14 0.13 0.13 0.13 0.12 0.12 0.11 0.11 0.12 0.13 0.13 0.13 0.13 0.13 0.13 0.13 0.13 0.13 0.13 0.13 0.13 0.13 0.13 0.13
0.36 0.35 0.34 0.32 0.27 0.22 0.19 0.18 0.17 0.17 0.16 0.15 0.14 0.13 0.13 0.13 0.13 0.13 0.14 0.13 0.12 0.11 0.11 0.12 0.12 0.10 0.09 0.10 0.11 0.12 0.12 0.12 0.12 0.12 0.12 0.12 0.12 0.12 0.12 0.12 0.12 0.12 0.12 0.12
0.33 0.31 0.27 0.23 0.22 0.19 0.17 0.17 0.17 0.16 0.16 0.15 0.14 0.13 0.13 0.13 0.13 0.13 0.12 0.11 0.12 0.12 0.13 0.12 0.11 0.10 0.09 0.10 0.11 0.11 0.11 0.11 0.11 0.11 0.11 0.11 0.11 0.11 0.11 0.12 0.11 0.11 0.11 0.11
0.27 0.22 0.20 0.18 0.17 0.17 0.17 0.17 0.16 0.15 0.15 0.14 0.13 0.12 0.12 0.13 0.13 0.13 0.12 0.12 0.13 0.14 0.13 0.12 0.11 0.10 0.09 0.10 0.10 0.10 0.10 0.10 0.10 0.09 0.09 0.09 0.10 0.10 0.10 0.10 0.10 0.10 0.10 0.10
0.19 0.18 0.17 0.17 0.16 0.16 0.17 0.16 0.15 0.14 0.13 0.13 0.13 0.13 0.13 0.13 0.14 0.14 0.14 0.14 0.15 0.14 0.13 0.12 0.11 0.10 0.09 0.09 0.10 0.09 0.09 0.09 0.09 0.09 0.09 0.09 0.09 0.09 0.09 0.10 0.10 0.10 0.10 0.10
0.18 0.17 0.16 0.16 0.16 0.15 0.15 0.14 0.14 0.14 0.14 0.14 0.15 0.15 0.14 0.14 0.15 0.13 0.12 0.15 0.15 0.14 0.13 0.12 0.11 0.10 0.09 0.09 0.09 0.09 0.09 0.09 0.09 0.09 0.09 0.09 0.09 0.09 0.09 0.09 0.09 0.09 0.09 0.09
0.16 0.16 0.16 0.17 0.16 0.15 0.14 0.15 0.16 0.16 0.16 0.16 0.17 0.17 0.16 0.14 0.13 0.14 0.14 0.14 0.15 0.14 0.13 0.12 0.11 0.11 0.10 0.10 0.10 0.09 0.09 0.09 0.09 0.09 0.09 0.09 0.09 0.09 0.09 0.09 0.09 0.10 0.09 0.09
0.17 0.17 0.17 0.16 0.15 0.15 0.15 0.16 0.16 0.16 0.17 0.16 0.17 0.17 0.16 0.15 0.13 0.12 0.12 0.12 0.13 0.14 0.13 0.12 0.12 0.11 0.11 0.11 0.11 0.11 0.11 0.10 0.10 0.10 0.10 0.10 0.10 0.10 0.10 0.09 0.09 0.09 0.10 0.09
0.17 0.16 0.16 0.16 0.16 0.16 0.16 0.16 0.16 0.16 0.15 0.15 0.15 0.15 0.14 0.14 0.13 0.12 0.12 0.12 0.12 0.13 0.13 0.13 0.13 0.13 0.12 0.12 0.12 0.12 0.12 0.11 0.11 0.11 0.10 0.10 0.10 0.10 0.10 0.10 0.10 0.09 0.10 0.10
0.18 0.18 0.17 0.17 0.18 0.18 0.18 0.18 0.16 0.15 0.16 0.14 0.13 0.13 0.13 0.13 0.13 0.12 0.12 0.12 0.12 0.12 0.12 0.12 0.12 0.12 0.13 0.12 0.12 0.13 0.13 0.13 0.13 0.12 0.12 0.11 0.11 0.11 0.10 0.10 0.10 0.10 0.10 0.10

GFSNGP_prec_pwat_117.txt.gz
Precipitable_Water
0.34 0.35 0.33 0.32 0.34 0.37 0.32 0.33 0.27 0.29 0.30 0.34 0.38 0.40 0.41 0.44 0.45 0.46 0.48 0.49 0.53 0.57 0.59 0.62 0.66 0.68 0.70 0.72 0.72 0.74 0.73 0.74 0.77 0.81 0.84 0.87 0.89 0.93 1.02 1.00 0.97 1.02 1.09 1.07
0.30 0.36 0.35 0.31 0.35 0.35 0.35 0.33 0.33 0.33 0.31 0.40 0.42 0.43 0.43 0.44 0.45 0.44 0.45 0.47 0.47 0.48 0.54 0.58 0.62 0.64 0.65 0.66 0.66 0.68 0.70 0.69 0.72 0.76 0.80 0.80 0.83 0.86 0.88 0.91 0.92 0.97 0.98 1.00
0.24 0.35 0.33 0.26 0.32 0.34 0.35 0.38 0.36 0.29 0.35 0.40 0.39 0.40 0.42 0.43 0.44 0.43 0.44 0.43 0.44 0.45 0.46 0.48 0.49 0.53 0.56 0.60 0.62 0.63 0.64 0.66 0.68 0.71 0.71 0.72 0.77 0.81 0.82 0.84 0.88 0.92 0.93 0.93
0.26 0.32 0.20 0.32 0.40 0.39 0.35 0.36 0.38 0.36 0.37 0.37 0.38 0.41 0.42 0.45 0.42 0.41 0.42 0.43 0.44 0.44 0.44 0.45 0.47 0.46 0.47 0.47 0.48 0.50 0.52 0.57 0.62 0.64 0.66 0.71 0.73 0.75 0.77 0.81 0.83 0.83 0.85 0.87
0.25 0.25 0.30 0.33 0.36 0.35 0.32 0.30 0.36 0.35 0.38 0.38 0.39 0.41 0.39 0.42 0.42 0.40 0.39 0.40 0.41 0.42 0.42 0.43 0.43 0.44 0.42 0.41 0.41 0.42 0.42 0.44 0.46 0.51 0.56 0.61 0.64 0.68 0.70 0.72 0.75 0.77 0.79 0.82
0.28 0.23 0.20 0.31 0.39 0.45 0.42 0.26 0.38 0.39 0.38 0.37 0.40 0.29 0.32 0.39 0.40 0.39 0.39 0.40 0.39 0.40 0.39 0.39 0.40 0.41 0.39 0.38 0.37 0.37 0.39 0.41 0.42 0.44 0.45 0.46 0.50 0.56 0.62 0.66 0.67 0.70 0.73 0.75
0.26 0.24 0.28 0.37 0.42 0.46 0.26 0.27 0.39 0.39 0.38 0.37 0.33 0.34 0.36 0.38 0.37 0.37 0.37 0.37 0.38 0.37 0.36 0.36 0.37 0.37 0.35 0.35 0.35 0.36 0.38 0.39 0.40 0.41 0.42 0.43 0.44 0.45 0.47 0.51 0.56 0.61 0.63 0.65
0.26 0.23 0.21 0.41 0.42 0.31 0.35 0.41 0.40 0.39 0.38 0.36 0.37 0.38 0.38 0.37 0.37 0.36 0.35 0.36 0.36 0.35 0.34 0.35 0.36 0.35 0.33 0.33 0.36 0.36 0.35 0.35 0.36 0.37 0.38 0.40 0.40 0.42 0.43 0.42 0.42 0.44 0.47 0.51
0.28 0.27 0.38 0.42 0.42 0.45 0.46 0.40 0.39 0.38 0.38 0.37 0.35 0.34 0.34 0.34 0.34 0.33 0.33 0.33 0.34 0.33 0.32 0.33 0.33 0.33 0.31 0.32 0.34 0.34 0.33 0.32 0.33 0.34 0.34 0.34 0.34 0.34 0.35 0.36 0.36 0.37 0.38 0.38
0.31 0.34 0.37 0.40 0.43 0.43 0.44 0.42 0.42 0.40 0.39 0.37 0.34 0.34 0.33 0.33 0.32 0.31 0.31 0.31 0.31 0.31 0.30 0.29 0.30 0.30 0.31 0.31 0.32 0.31 0.30 0.30 0.29 0.29 0.29 0.31 0.32 0.32 0.32 0.32 0.31 0.31 0.31 0.32
0.31 0.35 0.38 0.40 0.42 0.42 0.41 0.42 0.40 0.40 0.38 0.36 0.35 0.33 0.32 0.31 0.31 0.30 0.29 0.29 0.29 0.28 0.28 0.27 0.27 0.27 0.27 0.27 0.28 0.26 0.26 0.26 0.27 0.27 0.27 0.27 0.28 0.29 0.30 0.31 0.32 0.30 0.31 0.31
0.28 0.36 0.37 0.37 0.42 0.43 0.39 0.37 0.37 0.36 0.34 0.34 0.32 0.30 0.30 0.29 0.29 0.28 0.26 0.25 0.24 0.22 0.21 0.21 0.21 0.22 0.22 0.23 0.23 0.21 0.20 0.20 0.20 0.21 0.22 0.22 0.22 0.23 0.27 0.27 0.28 0.30 0.30 0.30
0.37 0.42 0.41 0.42 0.42 0.40 0.37 0.36 0.34 0.32 0.31 0.29 0.30 0.29 0.28 0.27 0.27 0.25 0.23 0.20 0.18 0.17 0.17 0.16 0.16 0.17 0.18 0.19 0.20 0.18 0.17 0.17 0.18 0.18 0.18 0.17 0.17 0.16 0.16 0.20 0.22 0.23 0.25 0.27
0.44 0.42 0.38 0.39 0.34 0.35 0.34 0.34 0.34 0.32 0.31 0.29 0.28 0.28 0.26 0.23 0.21 0.19 0.18 0.16 0.15 0.15 0.14 0.14 0.13 0.13 0.15 0.17 0.17 0.16 0.16 0.15 0.15 0.16 0.16 0.15 0.15 0.15 0.15 0.14 0.14 0.14 0.16 0.18
0.42 0.44 0.39 0.38 0.35 0.33 0.34 0.34 0.31 0.29 0.28 0.26 0.25 0.21 0.19 0.18 0.17 0.16 0.16 0.15 0.14 0.14 0.13 0.13 0.12 0.12 0.13 0.14 0.14 0.15 0.15 0.15 0.15 0.15 0.15 0.15 0.14 0.14 0.14 0.13 0.13 0.13 0.13 0.13
0.36 0.36 0.35 0.33 0.32 0.32 0.33 0.32 0.28 0.26 0.23 0.20 0.19 0.18 0.17 0.16 0.15 0.14 0.15 0.14 0.13 0.13 0.13 0.12 0.11 0.11 0.11 0.12 0.12 0.14 0.14 0.15 0.14 0.15 0.15 0.14 0.14 0.14 0.13 0.13 0.13 0.12 0.12 0.12
0.30 0.29 0.30 0.30 0.31 0.32 0.31 0.27 0.22 0.19 0.19 0.17 0.17 0.17 0.15 0.14 0.14 0.14 0.14 0.14 0.14 0.13 0.12 0.12 0.11 0.11 0.10 0.11 0.12 0.13 0.13 0.13 0.13 0.13 0.13 0.13 0.13 0.13 0.12 0.12 0.12 0.11 0.11 0.12
0.34 0.34 0.35 0.34 0.32 0.29 0.23 0.20 0.19 0.18 0.17 0.17 0.16 0.15 0.13 0.13 0.13 0.13 0.13 0.13 0.13 0.12 0.12 0.12 0.12 0.11 0.10 0.11 0.11 0.12 0.12 0.12 0.12 0.12 0.12 0.12 0.12 0.12 0.12 0.12 0.11 0.11 0.11 0.11
0.37 0.35 0.35 0.34 0.29 0.23 0.20 0.18 0.17 0.17 0.16 0.15 0.13 0.12 0.13 0.13 0.13 0.13 0.13 0.12 0.12 0.12 0.12 0.13 0.13 0.11 0.11 0.11 0.11 0.12 0.11 0.11 0.11 0.11 0.11 0.11 0.11 0.11 0.12 0.12 0.11 0.11 0.11 0.11
0.34 0.34 0.31 0.25 0.22 0.19 0.17 0.17 0.16 0.15 0.14 0.13 0.13 0.12 0.12 0.13 0.14 0.13 0.13 0.13 0.13 0.14 0.14 0.14 0.13 0.11 0.10 0.10 0.11 0.11 0.11 0.10 0.10 0.10 0.10 0.10 0.10 0.10 0.11 0.11 0.11 0.11 0.10 0.10
0.30 0.26 0.21 0.19 0.18 0.17 0.17 0.16 0.15 0.14 0.13 0.12 0.11 0.11 0.12 0.13 0.13 0.14 0.13 0.13 0.15 0.15 0.15 0.14 0.13 0.12 0.10 0.10 0.10 0.10 0.10 0.09 0.09 0.09 0.09 0.09 0.09 0.09 0.09 0.10 0.10 0.10 0.10 0.10
0.21 0.19 0.17 0.17 0.16 0.16 0.16 0.15 0.14 0.13 0.12 0.12 0.13 0.13 0.13 0.14 0.15 0.15 0.15 0.14 0.15 0.15 0.15 0.14 0.13 0.12 0.11 0.10 0.10 0.09 0.09 0.09 0.09 0.09 0.09 0.09 0.09 0.09 0.09 0.09 0.09 0.10 0.10 0.10
0.19 0.17 0.17 0.16 0.15 0.15 0.15 0.14 0.14 0.14 0.14 0.14 0.15 0.15 0.14 0.14 0.15 0.13 0.11 0.13 0.13 0.14 0.14 0.14 0.13 0.12 0.11 0.10 0.10 0.10 0.10 0.09 0.09 0.09 0.09 0.09 0.09 0.09 0.09 0.09 0.10 0.10 0.10 0.10
0.17 0.16 0.16 0.16 0.16 0.15 0.14 0.16 0.16 0.17 0.16 0.17 0.17 0.17 0.15 0.14 0.13 0.14 0.14 0.13 0.13 0.13 0.13 0.14 0.13 0.12 0.12 0.11 0.11 0.11 0.11 0.11 0.11 0.10 0.10 0.10 0.10 0.09 0.09 0.10 0.10 0.10 0.10 0.10
0.17 0.17 0.16 0.16 0.15 0.16 0.16 0.17 0.17 0.17 0.17 0.17 0.17 0.17 0.15 0.15 0.14 0.14 0.13 0.13 0.12 0.13 0.13 0.13 0.13 0.13 0.13 0.13 0.12 0.12 0.12 0.12 0.12 0.12 0.12 0.11 0.10 0.10 0.10 0.10 0.10 0.10 0.10 0.10
0.17 0.17 0.17 0.17 0.17 0.17 0.17 0.18 0.16 0.17 0.16 0.16 0.16 0.14 0.14 0.14 0.15 0.14 0.13 0.13 0.13 0.12 0.12 0.13 0.13 0.13 0.13 0.12 0.12 0.12 0.12 0.12 0.12 0.13 0.12 0.12 0.12 0.11 0.11 0.11 0.11 0.10 0.10 0.10
0.18 0.17 0.17 0.17 0.18 0.19 0.19 0.18 0.16 0.16 0.16 0.15 0.13 0.14 0.14 0.14 0.13 0.12 0.11 0.11 0.11 0.10 0.11 0.11 0.12 0.12 0.12 0.12 0.12 0.12 0.12 0.12 0.12 0.12 0.12 0.12 0.13 0.12 0.12 0.12 0.12 0.11 0.11 0.10

GFSNGP_prec_pwat_120.txt.gz
Precipitable_Water
0.30 0.32 0.33 0.30 0.30 0.35 0.34 0.35 0.29 0.30 0.30 0.34 0.38 0.39 0.41 0.44 0.45 0.46 0.47 0.49 0.51 0.53 0.55 0.59 0.59 0.63 0.66 0.67 0.68 0.69 0.71 0.72 0.74 0.78 0.81 0.85 0.88 0.90 0.92 0.94 0.98 1.01 1.00 0.99
0.26 0.34 0.34 0.28 0.33 0.35 0.35 0.34 0.33 0.33 0.31 0.40 0.42 0.43 0.42 0.44 0.44 0.42 0.44 0.45 0.47 0.51 0.55 0.57 0.58 0.59 0.62 0.63 0.66 0.68 0.70 0.70 0.73 0.75 0.74 0.77 0.78 0.81 0.85 0.88 0.89 0.93 0.93 0.94
0.22 0.32 0.31 0.26 0.32 0.33 0.34 0.36 0.36 0.30 0.35 0.40 0.39 0.39 0.41 0.42 0.42 0.43 0.43 0.43 0.42 0.44 0.46 0.48 0.52 0.56 0.57 0.59 0.62 0.65 0.64 0.64 0.66 0.68 0.71 0.71 0.74 0.76 0.75 0.79 0.82 0.84 0.87 0.88
0.23 0.29 0.19 0.31 0.41 0.38 0.35 0.36 0.38 0.36 0.38 0.39 0.37 0.38 0.41 0.42 0.40 0.39 0.40 0.43 0.44 0.44 0.44 0.45 0.47 0.47 0.47 0.49 0.50 0.51 0.52 0.55 0.59 0.62 0.64 0.68 0.70 0.71 0.73 0.74 0.75 0.76 0.76 0.78
0.21 0.25 0.28 0.31 0.37 0.36 0.33 0.31 0.37 0.37 0.39 0.40 0.40 0.40 0.38 0.41 0.41 0.40 0.40 0.40 0.41 0.43 0.44 0.45 0.44 0.44 0.44 0.42 0.41 0.41 0.43 0.43 0.44 0.45 0.46 0.51 0.56 0.61 0.66 0.69 0.68 0.69 0.71 0.73
0.23 0.21 0.19 0.30 0.39 0.45 0.43 0.28 0.39 0.40 0.39 0.39 0.39 0.30 0.32 0.38 0.38 0.37 0.37 0.38 0.38 0.37 0.37 0.37 0.38 0.40 0.38 0.37 0.37 0.37 0.38 0.40 0.41 0.42 0.41 0.41 0.43 0.44 0.48 0.52 0.57 0.62 0.64 0.66
0.22 0.22 0.26 0.37 0.43 0.46 0.27 0.29 0.41 0.40 0.38 0.37 0.33 0.34 0.36 0.37 0.37 0.37 0.36 0.36 0.36 0.36 0.35 0.35 0.36 0.36 0.34 0.34 0.33 0.35 0.36 0.36 0.36 0.37 0.38 0.40 0.41 0.42 0.42 0.43 0.44 0.45 0.48 0.51
0.22 0.21 0.19 0.41 0.42 0.33 0.38 0.43 0.42 0.40 0.39 0.37 0.37 0.37 0.36 0.36 0.35 0.35 0.33 0.34 0.34 0.33 0.32 0.33 0.33 0.32 0.31 0.31 0.33 0.33 0.34 0.33 0.33 0.34 0.35 0.35 0.35 0.36 0.37 0.37 0.37 0.38 0.39 0.41
0.23 0.24 0.37 0.42 0.42 0.47 0.45 0.42 0.41 0.39 0.38 0.37 0.36 0.35 0.35 0.34 0.34 0.33 0.32 0.31 0.32 0.31 0.31 0.31 0.31 0.30 0.29 0.30 0.31 0.30 0.30 0.29 0.29 0.29 0.30 0.31 0.31 0.31 0.31 0.32 0.31 0.31 0.31 0.31
0.28 0.32 0.36 0.40 0.44 0.46 0.46 0.44 0.42 0.41 0.39 0.38 0.35 0.35 0.33 0.33 0.32 0.31 0.30 0.29 0.30 0.29 0.27 0.26 0.27 0.26 0.24 0.25 0.24 0.23 0.22 0.22 0.23 0.23 0.24 0.24 0.25 0.26 0.27 0.27 0.27 0.28 0.28 0.29
0.30 0.34 0.37 0.39 0.42 0.43 0.44 0.44 0.42 0.41 0.39 0.37 0.35 0.33 0.32 0.30 0.29 0.28 0.27 0.26 0.24 0.22 0.20 0.19 0.20 0.20 0.21 0.21 0.21 0.19 0.19 0.19 0.19 0.19 0.19 0.18 0.19 0.20 0.20 0.22 0.23 0.23 0.25 0.26
0.28 0.37 0.37 0.37 0.42 0.44 0.41 0.40 0.40 0.37 0.35 0.34 0.32 0.31 0.30 0.29 0.28 0.25 0.22 0.20 0.18 0.17 0.16 0.15 0.16 0.17 0.18 0.18 0.18 0.17 0.16 0.16 0.17 0.17 0.17 0.16 0.16 0.16 0.19 0.17 0.18 0.19 0.20 0.21
0.37 0.43 0.42 0.42 0.43 0.43 0.39 0.38 0.36 0.34 0.33 0.30 0.30 0.29 0.28 0.26 0.23 0.21 0.18 0.16 0.15 0.14 0.14 0.13 0.13 0.13 0.14 0.16 0.16 0.16 0.16 0.15 0.16 0.16 0.16 0.15 0.15 0.15 0.14 0.17 0.17 0.16 0.14 0.15
0.43 0.43 0.38 0.40 0.36 0.37 0.35 0.35 0.35 0.33 0.32 0.30 0.29 0.26 0.22 0.20 0.19 0.17 0.16 0.15 0.14 0.14 0.13 0.13 0.13 0.12 0.12 0.13 0.14 0.15 0.16 0.16 0.16 0.16 0.16 0.16 0.16 0.16 0.16 0.15 0.14 0.15 0.16 0.14
0.42 0.45 0.42 0.39 0.36 0.34 0.35 0.35 0.32 0.29 0.28 0.25 0.22 0.20 0.19 0.17 0.16 0.15 0.15 0.14 0.14 0.14 0.13 0.12 0.11 0.11 0.11 0.11 0.12 0.13 0.14 0.15 0.15 0.16 0.16 0.16 0.16 0.16 0.15 0.15 0.14 0.14 0.14 0.14
0.38 0.39 0.38 0.35 0.33 0.33 0.34 0.33 0.29 0.25 0.22 0.20 0.19 0.18 0.16 0.16 0.15 0.15 0.15 0.14 0.13 0.12 0.11 0.11 0.11 0.11 0.10 0.11 0.11 0.14 0.14 0.15 0.14 0.15 0.15 0.15 0.15 0.14 0.14 0.13 0.13 0.13 0.12 0.11
0.31 0.30 0.32 0.31 0.31 0.32 0.32 0.29 0.23 0.21 0.20 0.18 0.17 0.17 0.15 0.14 0.14 0.13 0.13 0.13 0.13 0.12 0.12 0.13 0.12 0.12 0.11 0.12 0.12 0.14 0.14 0.14 0.14 0.15 0.15 0.14 0.14 0.14 0.13 0.13 0.12 0.12 0.12 0.11
0.35 0.34 0.34 0.34 0.33 0.31 0.26 0.21 0.20 0.18 0.17 0.17 0.16 0.13 0.12 0.12 0.12 0.12 0.12 0.13 0.13 0.13 0.14 0.14 0.13 0.13 0.12 0.12 0.12 0.13 0.13 0.13 0.13 0.13 0.13 0.13 0.12 0.12 0.13 0.12 0.12 0.12 0.12 0.12
0.36 0.34 0.36 0.34 0.33 0.26 0.21 0.18 0.18 0.17 0.16 0.14 0.12 0.11 0.12 0.12 0.12 0.13 0.13 0.13 0.13 0.13 0.15 0.15 0.14 0.13 0.12 0.12 0.11 0.12 0.12 0.12 0.12 0.11 0.12 0.11 0.12 0.12 0.12 0.12 0.12 0.12 0.11 0.11
0.36 0.36 0.35 0.31 0.25 0.21 0.18 0.18 0.16 0.14 0.13 0.13 0.12 0.12 0.12 0.13 0.14 0.13 0.14 0.13 0.15 0.15 0.16 0.15 0.14 0.13 0.12 0.12 0.11 0.11 0.11 0.11 0.11 0.10 0.11 0.10 0.10 0.10 0.11 0.11 0.11 0.11 0.11 0.11
0.34 0.33 0.28 0.22 0.18 0.18 0.17 0.16 0.15 0.13 0.13 0.12 0.12 0.12 0.13 0.14 0.15 0.14 0.14 0.13 0.16 0.17 0.16 0.15 0.14 0.14 0.12 0.11 0.11 0.11 0.11 0.11 0.10 0.10 0.10 0.10 0.10 0.10 0.10 0.10 0.10 0.11 0.11 0.11
0.31 0.24 0.19 0.18 0.17 0.16 0.16 0.16 0.15 0.13 0.13 0.13 0.14 0.14 0.14 0.15 0.16 0.16 0.16 0.13 0.14 0.15 0.15 0.15 0.15 0.14 0.12 0.11 0.11 0.12 0.11 0.11 0.11 0.11 0.10 0.10 0.10 0.10 0.10 0.10 0.10 0.10 0.10 0.11
0.22 0.19 0.18 0.17 0.16 0.15 0.15 0.14 0.14 0.14 0.15 0.15 0.15 0.15 0.16 0.16 0.16 0.14 0.13 0.15 0.14 0.15 0.14 0.14 0.15 0.14 0.12 0.12 0.13 0.12 0.12 0.12 0.12 0.12 0.12 0.11 0.11 0.11 0.10 0.10 0.10 0.10 0.11 0.10
0.19 0.18 0.17 0.17 0.16 0.14 0.14 0.15 0.16 0.18 0.18 0.18 0.17 0.17 0.17 0.16 0.16 0.17 0.16 0.16 0.15 0.14 0.14 0.14 0.14 0.14 0.13 0.13 0.13 0.13 0.13 0.13 0.13 0.13 0.13 0.13 0.12 0.12 0.12 0.11 0.11 0.11 0.11 0.11
0.19 0.18 0.17 0.16 0.15 0.16 0.17 0.18 0.18 0.18 0.19 0.18 0.18 0.18 0.17 0.16 0.15 0.15 0.16 0.15 0.15 0.14 0.13 0.14 0.13 0.13 0.13 0.13 0.13 0.13 0.13 0.13 0.13 0.13 0.13 0.13 0.13 0.13 0.13 0.12 0.12 0.12 0.11 0.11
0.19 0.18 0.17 0.17 0.18 0.18 0.18 0.18 0.18 0.18 0.18 0.17 0.17 0.17 0.17 0.16 0.16 0.15 0.15 0.14 0.13 0.12 0.12 0.12 0.12 0.11 0.12 0.12 0.12 0.12 0.12 0.12 0.12 0.12 0.12 0.12 0.12 0.12 0.13 0.13 0.12 0.12 0.12 0.12
0.21 0.20 0.19 0.18 0.18 0.18 0.19 0.19 0.18 0.17 0.17 0.17 0.16 0.16 0.15 0.15 0.15 0.14 0.13 0.12 0.12 0.11 0.11 0.11 0.11 0.10 0.10 0.10 0.10 0.10 0.11 0.11 0.11 0.11 0.11 0.11 0.11 0.11 0.12 0.12 0.13 0.13 0.13 0.12

GFSNGP_prec_pwat_123.txt.gz
Precipitable_Water
0.27 0.28 0.28 0.27 0.27 0.29 0.30 0.34 0.30 0.31 0.30 0.34 0.38 0.40 0.42 0.44 0.45 0.45 0.47 0.48 0.50 0.52 0.54 0.57 0.56 0.60 0.64 0.67 0.72 0.75 0.78 0.76 0.77 0.80 0.81 0.83 0.88 0.88 0.86 0.87 0.90 0.93 0.94 0.92
0.22 0.28 0.28 0.28 0.29 0.32 0.33 0.33 0.32 0.32 0.31 0.40 0.43 0.43 0.43 0.43 0.42 0.40 0.41 0.43 0.47 0.51 0.53 0.55 0.55 0.56 0.61 0.64 0.64 0.68 0.67 0.69 0.71 0.71 0.74 0.75 0.77 0.78 0.81 0.86 0.85 0.86 0.87 0.87
0.19 0.28 0.27 0.23 0.27 0.31 0.32 0.34 0.35 0.30 0.35 0.40 0.39 0.40 0.40 0.40 0.40 0.40 0.41 0.43 0.42 0.44 0.46 0.49 0.51 0.50 0.47 0.50 0.57 0.57 0.58 0.62 0.62 0.65 0.67 0.66 0.70 0.73 0.74 0.75 0.76 0.78 0.80 0.81
0.19 0.27 0.16 0.29 0.37 0.36 0.33 0.35 0.37 0.36 0.37 0.39 0.39 0.40 0.39 0.40 0.39 0.39 0.39 0.40 0.42 0.44 0.45 0.46 0.48 0.48 0.49 0.49 0.46 0.45 0.44 0.45 0.50 0.54 0.55 0.60 0.62 0.63 0.64 0.68 0.68 0.68 0.70 0.73
0.18 0.19 0.26 0.30 0.33 0.33 0.32 0.32 0.38 0.36 0.37 0.39 0.41 0.40 0.38 0.39 0.40 0.38 0.38 0.39 0.38 0.39 0.40 0.43 0.43 0.44 0.44 0.44 0.45 0.45 0.43 0.44 0.46 0.46 0.44 0.44 0.43 0.46 0.52 0.57 0.60 0.62 0.64 0.63
0.21 0.16 0.16 0.29 0.37 0.42 0.41 0.27 0.39 0.41 0.39 0.40 0.41 0.31 0.32 0.37 0.37 0.36 0.35 0.35 0.35 0.36 0.35 0.34 0.35 0.37 0.36 0.35 0.36 0.35 0.38 0.39 0.40 0.41 0.40 0.40 0.41 0.42 0.44 0.45 0.45 0.47 0.48 0.51
0.19 0.17 0.24 0.32 0.39 0.44 0.26 0.29 0.42 0.43 0.42 0.41 0.35 0.36 0.37 0.38 0.37 0.36 0.34 0.34 0.34 0.33 0.32 0.31 0.33 0.33 0.32 0.32 0.31 0.33 0.34 0.34 0.34 0.35 0.35 0.35 0.36 0.37 0.37 0.38 0.39 0.39 0.41 0.43
0.19 0.17 0.18 0.37 0.37 0.30 0.39 0.44 0.44 0.44 0.42 0.39 0.38 0.37 0.36 0.35 0.35 0.34 0.32 0.32 0.32 0.31 0.31 0.31 0.31 0.30 0.29 0.28 0.29 0.30 0.30 0.30 0.30 0.30 0.31 0.32 0.32 0.32 0.32 0.32 0.32 0.32 0.32 0.33
0.23 0.23 0.34 0.38 0.39 0.44 0.47 0.44 0.44 0.43 0.43 0.40 0.36 0.34 0.35 0.34 0.34 0.32 0.31 0.30 0.30 0.29 0.28 0.27 0.26 0.25 0.22 0.23 0.23 0.23 0.23 0.22 0.23 0.22 0.23 0.24 0.23 0.23 0.23 0.25 0.25 0.25 0.26 0.27
0.25 0.29 0.31 0.35 0.41 0.45 0.47 0.45 0.45 0.44 0.42 0.39 0.36 0.36 0.35 0.34 0.31 0.29 0.28 0.27 0.26 0.24 0.21 0.19 0.20 0.20 0.19 0.20 0.20 0.20 0.19 0.19 0.19 0.19 0.18 0.18 0.19 0.18 0.18 0.17 0.17 0.18 0.19 0.20
0.28 0.33 0.35 0.38 0.41 0.43 0.45 0.45 0.43 0.43 0.41 0.39 0.37 0.34 0.33 0.31 0.29 0.27 0.25 0.22 0.20 0.18 0.16 0.15 0.16 0.16 0.17 0.17 0.17 0.16 0.16 0.16 0.17 0.18 0.18 0.17 0.18 0.18 0.17 0.17 0.15 0.14 0.15 0.16
0.27 0.34 0.37 0.37 0.42 0.45 0.43 0.42 0.42 0.40 0.38 0.37 0.35 0.32 0.31 0.29 0.27 0.23 0.20 0.18 0.16 0.15 0.14 0.13 0.13 0.13 0.14 0.15 0.15 0.14 0.15 0.15 0.16 0.16 0.17 0.16 0.16 0.17 0.20 0.18 0.18 0.17 0.15 0.14
0.34 0.42 0.42 0.43 0.44 0.45 0.42 0.41 0.39 0.36 0.35 0.33 0.33 0.31 0.29 0.24 0.21 0.19 0.16 0.15 0.14 0.14 0.14 0.14 0.13 0.12 0.12 0.13 0.14 0.14 0.15 0.16 0.16 0.17 0.17 0.17 0.17 0.16 0.15 0.19 0.20 0.19 0.17 0.16
0.41 0.42 0.38 0.41 0.39 0.42 0.38 0.36 0.36 0.35 0.34 0.32 0.30 0.27 0.23 0.20 0.18 0.16 0.15 0.15 0.15 0.15 0.14 0.13 0.12 0.11 0.11 0.11 0.12 0.13 0.15 0.16 0.15 0.17 0.17 0.17 0.17 0.17 0.17 0.16 0.15 0.16 0.18 0.15
0.41 0.44 0.42 0.43 0.39 0.36 0.35 0.36 0.32 0.31 0.29 0.26 0.23 0.21 0.19 0.17 0.16 0.15 0.15 0.15 0.15 0.14 0.12 0.12 0.11 0.11 0.11 0.11 0.12 0.14 0.15 0.16 0.15 0.16 0.17 0.17 0.17 0.17 0.16 0.16 0.15 0.15 0.16 0.16
0.40 0.41 0.41 0.38 0.36 0.34 0.34 0.34 0.30 0.27 0.23 0.21 0.19 0.18 0.17 0.17 0.16 0.16 0.15 0.14 0.13 0.12 0.12 0.12 0.12 0.12 0.12 0.12 0.12 0.15 0.15 0.16 0.15 0.15 0.16 0.16 0.16 0.16 0.15 0.15 0.15 0.15 0.14 0.14
0.34 0.33 0.34 0.33 0.33 0.33 0.34 0.33 0.28 0.23 0.21 0.20 0.18 0.18 0.16 0.14 0.14 0.13 0.13 0.13 0.13 0.13 0.13 0.14 0.13 0.13 0.13 0.13 0.12 0.14 0.15 0.15 0.15 0.15 0.15 0.15 0.15 0.14 0.14 0.14 0.14 0.13 0.13 0.14
0.36 0.36 0.35 0.34 0.34 0.34 0.32 0.26 0.23 0.21 0.19 0.19 0.17 0.14 0.12 0.13 0.13 0.12 0.13 0.14 0.13 0.14 0.15 0.16 0.14 0.14 0.14 0.13 0.12 0.13 0.14 0.14 0.13 0.13 0.13 0.13 0.13 0.12 0.13 0.13 0.13 0.14 0.13 0.13
0.36 0.35 0.36 0.36 0.36 0.32 0.24 0.21 0.20 0.19 0.18 0.15 0.12 0.12 0.12 0.12 0.13 0.14 0.14 0.14 0.14 0.16 0.18 0.17 0.16 0.15 0.14 0.13 0.12 0.13 0.13 0.13 0.12 0.12 0.12 0.12 0.11 0.12 0.12 0.13 0.12 0.12 0.13 0.13
0.37 0.37 0.36 0.34 0.33 0.26 0.21 0.20 0.18 0.16 0.14 0.13 0.13 0.12 0.12 0.13 0.14 0.14 0.14 0.14 0.18 0.18 0.18 0.16 0.16 0.15 0.15 0.14 0.12 0.12 0.13 0.12 0.12 0.11 0.12 0.11 0.12 0.12 0.12 0.12 0.11 0.12 0.12 0.13
0.36 0.36 0.35 0.32 0.26 0.22 0.18 0.17 0.16 0.14 0.14 0.13 0.13 0.13 0.14 0.15 0.15 0.15 0.15 0.15 0.19 0.17 0.15 0.16 0.16 0.16 0.15 0.14 0.12 0.12 0.13 0.13 0.12 0.12 0.12 0.12 0.12 0.12 0.12 0.12 0.12 0.12 0.12 0.12
0.35 0.33 0.30 0.24 0.19 0.17 0.17 0.17 0.16 0.15 0.13 0.14 0.14 0.15 0.15 0.17 0.19 0.18 0.18 0.16 0.17 0.16 0.16 0.16 0.16 0.17 0.15 0.13 0.13 0.13 0.13 0.13 0.13 0.13 0.12 0.13 0.13 0.12 0.12 0.12 0.12 0.12 0.12 0.13
0.32 0.29 0.22 0.18 0.17 0.17 0.17 0.16 0.15 0.14 0.15 0.15 0.16 0.17 0.17 0.17 0.18 0.16 0.16 0.19 0.16 0.16 0.15 0.16 0.17 0.16 0.15 0.14 0.13 0.14 0.14 0.14 0.14 0.14 0.14 0.14 0.14 0.14 0.13 0.13 0.12 0.12 0.12 0.12
0.30 0.21 0.19 0.19 0.18 0.16 0.14 0.14 0.15 0.16 0.17 0.18 0.19 0.18 0.18 0.17 0.18 0.19 0.19 0.18 0.17 0.16 0.16 0.17 0.16 0.14 0.14 0.13 0.13 0.14 0.14 0.14 0.13 0.13 0.14 0.14 0.13 0.13 0.14 0.14 0.13 0.13 0.13 0.13
0.23 0.20 0.19 0.17 0.15 0.15 0.17 0.16 0.17 0.18 0.18 0.19 0.19 0.19 0.18 0.18 0.17 0.18 0.17 0.17 0.17 0.16 0.15 0.15 0.14 0.13 0.12 0.12 0.13 0.12 0.12 0.12 0.13 0.13 0.12 0.12 0.12 0.12 0.12 0.12 0.13 0.14 0.13 0.13
0.22 0.20 0.19 0.18 0.19 0.19 0.19 0.18 0.19 0.20 0.19 0.19 0.20 0.21 0.19 0.19 0.18 0.17 0.17 0.16 0.16 0.14 0.13 0.13 0.13 0.11 0.11 0.11 0.10 0.10 0.11 0.10 0.11 0.11 0.11 0.11 0.11 0.11 0.11 0.11 0.12 0.12 0.13 0.13
0.23 0.22 0.21 0.20 0.21 0.20 0.21 0.21 0.20 0.20 0.20 0.19 0.18 0.20 0.18 0.18 0.18 0.16 0.16 0.15 0.13 0.12 0.11 0.11 0.10 0.10 0.10 0.09 0.09 0.09 0.09 0.09 0.09 0.09 0.09 0.09 0.09 0.10 0.10 0.11 0.11 0.12 0.11 0.12

GFSNGP_prec_pwat_129.txt.gz
Precipitable_Water
0.26 0.24 0.29 0.34 0.36 0.34 0.30 0.27 0.21 0.25 0.26 0.33 0.36 0.38 0.39 0.42 0.40 0.37 0.36 0.36 0.40 0.42 0.46 0.49 0.51 0.51 0.51 0.54 0.61 0.65 0.70 0.72 0.72 0.77 0.78 0.78 0.78 0.83 0.88 0.88 0.91 0.93 0.98 1.01
0.26 0.20 0.21 0.20 0.28 0.29 0.26 0.27 0.27 0.28 0.28 0.37 0.40 0.41 0.39 0.39 0.37 0.36 0.34 0.37 0.36 0.40 0.42 0.42 0.48 0.49 0.49 0.47 0.48 0.51 0.58 0.64 0.68 0.71 0.74 0.73 0.78 0.78 0.80 0.83 0.83 0.86 0.88 0.91
0.21 0.21 0.25 0.21 0.22 0.26 0.30 0.33 0.30 0.24 0.30 0.39 0.36 0.38 0.39 0.38 0.39 0.37 0.36 0.36 0.35 0.35 0.37 0.38 0.40 0.43 0.44 0.45 0.44 0.43 0.44 0.47 0.48 0.51 0.53 0.59 0.64 0.71 0.74 0.77 0.78 0.78 0.82 0.82
0.23 0.19 0.12 0.29 0.41 0.38 0.35 0.34 0.33 0.33 0.35 0.37 0.37 0.39 0.41 0.42 0.39 0.36 0.34 0.34 0.33 0.33 0.35 0.34 0.36 0.35 0.36 0.37 0.37 0.38 0.37 0.39 0.40 0.41 0.43 0.44 0.45 0.45 0.50 0.53 0.53 0.57 0.63 0.67
0.21 0.15 0.19 0.25 0.32 0.32 0.31 0.30 0.34 0.33 0.35 0.37 0.38 0.39 0.38 0.42 0.42 0.37 0.34 0.34 0.33 0.31 0.31 0.33 0.31 0.32 0.32 0.29 0.29 0.27 0.28 0.29 0.30 0.32 0.32 0.33 0.32 0.34 0.35 0.38 0.39 0.41 0.43 0.43
0.18 0.15 0.14 0.26 0.36 0.42 0.39 0.24 0.37 0.36 0.35 0.36 0.38 0.30 0.36 0.41 0.41 0.37 0.34 0.33 0.32 0.32 0.30 0.28 0.27 0.26 0.25 0.26 0.24 0.25 0.24 0.26 0.26 0.25 0.23 0.20 0.22 0.25 0.27 0.28 0.28 0.30 0.31 0.30
0.18 0.17 0.22 0.32 0.36 0.39 0.21 0.23 0.37 0.38 0.36 0.36 0.35 0.39 0.44 0.41 0.39 0.38 0.34 0.32 0.32 0.30 0.26 0.24 0.24 0.23 0.21 0.21 0.22 0.23 0.24 0.22 0.22 0.21 0.20 0.19 0.17 0.16 0.17 0.17 0.18 0.18 0.19 0.21
0.27 0.22 0.17 0.36 0.35 0.29 0.35 0.39 0.40 0.40 0.41 0.39 0.41 0.43 0.42 0.40 0.37 0.35 0.32 0.31 0.30 0.26 0.22 0.20 0.19 0.18 0.17 0.17 0.19 0.19 0.19 0.19 0.18 0.19 0.18 0.18 0.16 0.16 0.15 0.14 0.13 0.13 0.13 0.14
0.29 0.28 0.37 0.42 0.40 0.42 0.39 0.34 0.35 0.37 0.41 0.43 0.42 0.41 0.40 0.37 0.35 0.32 0.31 0.29 0.26 0.21 0.18 0.17 0.16 0.15 0.13 0.15 0.17 0.18 0.17 0.17 0.18 0.18 0.19 0.19 0.18 0.17 0.15 0.15 0.14 0.13 0.12 0.12
0.33 0.36 0.36 0.37 0.39 0.38 0.39 0.39 0.40 0.41 0.41 0.43 0.41 0.39 0.37 0.36 0.34 0.32 0.30 0.25 0.22 0.18 0.16 0.14 0.13 0.12 0.12 0.13 0.16 0.17 0.16 0.17 0.18 0.18 0.17 0.18 0.19 0.18 0.16 0.16 0.15 0.14 0.13 0.13
0.29 0.31 0.30 0.32 0.35 0.38 0.39 0.42 0.41 0.43 0.41 0.41 0.40 0.38 0.38 0.34 0.33 0.30 0.25 0.22 0.20 0.17 0.14 0.12 0.11 0.10 0.11 0.13 0.14 0.15 0.16 0.15 0.16 0.17 0.16 0.16 0.18 0.18 0.18 0.18 0.18 0.15 0.14 0.14
0.20 0.27 0.26 0.28 0.34 0.38 0.38 0.39 0.42 0.42 0.42 0.43 0.41 0.38 0.36 0.33 0.30 0.25 0.22 0.20 0.17 0.15 0.13 0.12 0.11 0.11 0.12 0.14 0.15 0.15 0.15 0.14 0.15 0.16 0.17 0.16 0.16 0.16 0.20 0.20 0.20 0.20 0.18 0.16
0.25 0.32 0.32 0.34 0.37 0.40 0.39 0.41 0.43 0.43 0.42 0.40 0.40 0.38 0.34 0.30 0.25 0.22 0.20 0.18 0.15 0.13 0.13 0.12 0.12 0.11 0.12 0.13 0.15 0.15 0.16 0.15 0.14 0.15 0.16 0.16 0.15 0.14 0.13 0.16 0.18 0.20 0.19 0.17
0.35 0.33 0.30 0.34 0.33 0.40 0.42 0.43 0.43 0.41 0.40 0.38 0.36 0.34 0.30 0.25 0.22 0.19 0.17 0.16 0.16 0.13 0.12 0.12 0.13 0.12 0.13 0.13 0.14 0.15 0.16 0.15 0.14 0.14 0.15 0.14 0.13 0.13 0.13 0.12 0.12 0.13 0.18 0.16
0.32 0.34 0.35 0.38 0.40 0.41 0.41 0.39 0.37 0.37 0.36 0.34 0.33 0.28 0.23 0.19 0.17 0.16 0.16 0.17 0.16 0.14 0.13 0.14 0.13 0.13 0.14 0.13 0.13 0.14 0.15 0.15 0.14 0.14 0.14 0.14 0.14 0.12 0.12 0.12 0.13 0.13 0.14 0.15
0.32 0.35 0.37 0.37 0.38 0.36 0.34 0.34 0.33 0.32 0.32 0.29 0.24 0.21 0.19 0.18 0.17 0.15 0.14 0.14 0.13 0.12 0.15 0.16 0.14 0.14 0.14 0.13 0.11 0.12 0.13 0.14 0.13 0.13 0.13 0.13 0.12 0.11 0.11 0.12 0.11 0.11 0.12 0.13
0.30 0.31 0.34 0.33 0.33 0.33 0.32 0.33 0.33 0.31 0.27 0.23 0.21 0.20 0.18 0.16 0.14 0.13 0.13 0.14 0.14 0.15 0.17 0.16 0.15 0.14 0.15 0.14 0.13 0.12 0.12 0.14 0.13 0.12 0.13 0.12 0.12 0.11 0.11 0.11 0.10 0.11 0.11 0.12
0.37 0.37 0.36 0.35 0.33 0.32 0.32 0.33 0.33 0.28 0.22 0.21 0.20 0.17 0.16 0.16 0.13 0.12 0.13 0.14 0.16 0.17 0.17 0.17 0.17 0.16 0.15 0.16 0.14 0.13 0.12 0.12 0.14 0.13 0.13 0.12 0.12 0.11 0.12 0.11 0.11 0.11 0.11 0.11
0.37 0.35 0.35 0.35 0.34 0.32 0.32 0.33 0.31 0.25 0.23 0.20 0.16 0.14 0.14 0.13 0.13 0.13 0.13 0.15 0.17 0.16 0.17 0.17 0.17 0.17 0.16 0.16 0.15 0.14 0.14 0.13 0.13 0.13 0.13 0.14 0.13 0.12 0.12 0.11 0.11 0.11 0.10 0.10
0.35 0.35 0.34 0.34 0.34 0.34 0.34 0.32 0.26 0.22 0.20 0.16 0.14 0.13 0.12 0.12 0.13 0.13 0.16 0.17 0.18 0.18 0.17 0.16 0.16 0.17 0.18 0.17 0.17 0.16 0.15 0.14 0.12 0.13 0.13 0.14 0.13 0.12 0.12 0.12 0.12 0.12 0.11 0.11
0.34 0.34 0.35 0.34 0.34 0.35 0.33 0.26 0.22 0.18 0.16 0.15 0.13 0.12 0.13 0.14 0.16 0.17 0.16 0.17 0.19 0.18 0.18 0.17 0.19 0.18 0.18 0.17 0.16 0.15 0.13 0.13 0.13 0.13 0.13 0.13 0.13 0.13 0.12 0.12 0.12 0.12 0.12 0.12
0.35 0.36 0.37 0.36 0.35 0.33 0.29 0.24 0.20 0.16 0.15 0.14 0.13 0.14 0.15 0.16 0.18 0.18 0.19 0.18 0.19 0.20 0.19 0.19 0.18 0.17 0.16 0.15 0.14 0.14 0.14 0.13 0.13 0.13 0.12 0.12 0.11 0.11 0.11 0.11 0.11 0.11 0.11 0.11
0.37 0.37 0.36 0.35 0.34 0.30 0.24 0.20 0.16 0.14 0.14 0.14 0.14 0.14 0.16 0.17 0.18 0.16 0.16 0.21 0.20 0.19 0.19 0.18 0.17 0.15 0.14 0.14 0.13 0.12 0.11 0.10 0.10 0.10 0.10 0.10 0.10 0.10 0.10 0.10 0.10 0.10 0.10 0.11
0.36 0.36 0.35 0.35 0.32 0.24 0.18 0.16 0.15 0.14 0.14 0.14 0.15 0.17 0.16 0.17 0.18 0.20 0.21 0.20 0.19 0.18 0.18 0.17 0.15 0.14 0.14 0.13 0.11 0.10 0.10 0.09 0.09 0.09 0.09 0.08 0.08 0.08 0.08 0.09 0.09 0.09 0.09 0.09
0.34 0.33 0.32 0.29 0.24 0.18 0.17 0.16 0.15 0.14 0.16 0.17 0.18 0.19 0.20 0.20 0.18 0.18 0.17 0.17 0.17 0.17 0.16 0.15 0.14 0.13 0.12 0.10 0.10 0.09 0.08 0.08 0.08 0.08 0.07 0.07 0.07 0.08 0.08 0.08 0.07 0.07 0.08 0.08
0.31 0.30 0.28 0.25 0.21 0.19 0.17 0.16 0.16 0.18 0.19 0.20 0.22 0.22 0.21 0.21 0.20 0.19 0.18 0.17 0.17 0.15 0.14 0.13 0.12 0.11 0.10 0.09 0.09 0.08 0.08 0.08 0.07 0.07 0.07 0.07 0.07 0.07 0.07 0.07 0.07 0.07 0.08 0.08
0.31 0.30 0.27 0.25 0.24 0.23 0.22 0.20 0.21 0.22 0.23 0.23 0.21 0.22 0.21 0.20 0.19 0.18 0.17 0.16 0.14 0.13 0.12 0.11 0.10 0.09 0.09 0.08 0.08 0.07 0.07 0.07 0.07 0.06 0.06 0.07 0.07 0.07 0.06 0.07 0.07 0.07 0.08 0.07

GFSNGP_prec_pwat_132.txt.gz
Precipitable_Water
0.32 0.33 0.30 0.28 0.23 0.29 0.30 0.34 0.28 0.28 0.22 0.27 0.35 0.38 0.38 0.40 0.40 0.38 0.37 0.36 0.35 0.35 0.36 0.38 0.42 0.47 0.45 0.44 0.48 0.54 0.56 0.60 0.63 0.67 0.66 0.70 0.73 0.79 0.80 0.83 0.84 0.77 0.80 0.88
0.26 0.32 0.31 0.24 0.25 0.27 0.26 0.28 0.29 0.26 0.23 0.35 0.39 0.39 0.38 0.38 0.38 0.36 0.37 0.35 0.34 0.35 0.34 0.36 0.34 0.36 0.42 0.41 0.41 0.45 0.45 0.45 0.49 0.56 0.64 0.68 0.71 0.70 0.73 0.74 0.77 0.73 0.76 0.79
0.21 0.27 0.27 0.24 0.24 0.27 0.28 0.30 0.30 0.25 0.31 0.36 0.35 0.38 0.37 0.38 0.38 0.36 0.37 0.34 0.32 0.32 0.32 0.31 0.32 0.31 0.30 0.32 0.34 0.34 0.35 0.34 0.38 0.43 0.45 0.49 0.54 0.56 0.56 0.61 0.71 0.74 0.76 0.78
0.24 0.27 0.18 0.25 0.35 0.36 0.35 0.37 0.37 0.35 0.35 0.37 0.38 0.39 0.39 0.39 0.37 0.37 0.36 0.35 0.32 0.30 0.30 0.29 0.28 0.28 0.26 0.26 0.25 0.25 0.25 0.25 0.24 0.24 0.26 0.30 0.33 0.36 0.41 0.40 0.41 0.45 0.47 0.51
0.23 0.22 0.25 0.26 0.26 0.27 0.27 0.28 0.35 0.33 0.35 0.36 0.39 0.38 0.36 0.40 0.40 0.39 0.37 0.36 0.32 0.31 0.29 0.27 0.24 0.24 0.24 0.24 0.23 0.23 0.23 0.23 0.22 0.21 0.19 0.20 0.20 0.21 0.22 0.24 0.26 0.27 0.28 0.33
0.28 0.21 0.17 0.25 0.33 0.40 0.39 0.24 0.34 0.33 0.33 0.35 0.36 0.28 0.33 0.39 0.40 0.39 0.38 0.35 0.32 0.29 0.26 0.24 0.23 0.23 0.21 0.20 0.21 0.20 0.21 0.21 0.22 0.20 0.18 0.17 0.17 0.16 0.17 0.17 0.17 0.18 0.18 0.19
0.25 0.22 0.22 0.29 0.32 0.38 0.21 0.20 0.37 0.38 0.37 0.36 0.33 0.36 0.41 0.39 0.40 0.39 0.36 0.34 0.32 0.26 0.21 0.20 0.21 0.21 0.18 0.18 0.17 0.19 0.18 0.18 0.18 0.19 0.18 0.17 0.17 0.17 0.16 0.15 0.14 0.13 0.13 0.15
0.24 0.22 0.17 0.35 0.35 0.28 0.33 0.39 0.37 0.35 0.35 0.34 0.37 0.40 0.39 0.39 0.38 0.36 0.34 0.33 0.29 0.23 0.19 0.18 0.17 0.18 0.16 0.15 0.17 0.17 0.17 0.17 0.17 0.18 0.19 0.17 0.16 0.16 0.15 0.14 0.13 0.13 0.12 0.13
0.29 0.27 0.38 0.43 0.39 0.44 0.43 0.38 0.36 0.35 0.37 0.38 0.37 0.37 0.37 0.37 0.36 0.34 0.33 0.30 0.26 0.20 0.17 0.15 0.15 0.14 0.14 0.15 0.16 0.17 0.17 0.17 0.17 0.17 0.18 0.17 0.16 0.16 0.14 0.14 0.13 0.12 0.12 0.12
0.35 0.36 0.39 0.45 0.49 0.43 0.37 0.34 0.35 0.38 0.40 0.41 0.38 0.37 0.35 0.36 0.35 0.34 0.33 0.28 0.23 0.19 0.15 0.14 0.13 0.13 0.14 0.16 0.17 0.16 0.15 0.16 0.16 0.16 0.16 0.17 0.17 0.17 0.15 0.14 0.14 0.13 0.12 0.11
0.34 0.38 0.40 0.39 0.36 0.36 0.35 0.36 0.35 0.38 0.40 0.40 0.39 0.36 0.38 0.36 0.35 0.34 0.29 0.24 0.21 0.17 0.14 0.13 0.13 0.13 0.15 0.15 0.16 0.16 0.14 0.15 0.16 0.16 0.16 0.15 0.16 0.16 0.16 0.17 0.16 0.14 0.13 0.12
0.27 0.34 0.29 0.26 0.31 0.35 0.33 0.34 0.36 0.37 0.38 0.40 0.40 0.39 0.37 0.36 0.35 0.30 0.24 0.21 0.18 0.16 0.14 0.13 0.12 0.12 0.14 0.17 0.17 0.16 0.14 0.14 0.15 0.15 0.15 0.15 0.15 0.14 0.17 0.18 0.19 0.18 0.17 0.14
0.33 0.36 0.31 0.31 0.33 0.34 0.34 0.37 0.39 0.40 0.41 0.39 0.40 0.39 0.38 0.35 0.31 0.25 0.21 0.19 0.16 0.15 0.14 0.13 0.12 0.12 0.14 0.16 0.17 0.17 0.15 0.15 0.15 0.16 0.15 0.15 0.14 0.13 0.12 0.14 0.16 0.18 0.17 0.15
0.38 0.35 0.28 0.30 0.29 0.36 0.38 0.39 0.41 0.41 0.42 0.42 0.40 0.39 0.35 0.30 0.24 0.21 0.18 0.17 0.16 0.15 0.14 0.13 0.13 0.13 0.14 0.16 0.16 0.16 0.15 0.14 0.14 0.14 0.14 0.13 0.12 0.12 0.13 0.12 0.12 0.12 0.15 0.15
0.32 0.33 0.32 0.33 0.35 0.37 0.40 0.40 0.37 0.37 0.39 0.38 0.36 0.34 0.30 0.24 0.19 0.18 0.18 0.18 0.17 0.14 0.15 0.15 0.14 0.14 0.15 0.15 0.15 0.15 0.15 0.14 0.13 0.14 0.13 0.13 0.12 0.12 0.12 0.11 0.11 0.12 0.12 0.13
0.31 0.33 0.32 0.32 0.34 0.37 0.37 0.36 0.35 0.36 0.35 0.34 0.32 0.28 0.22 0.19 0.17 0.16 0.17 0.17 0.14 0.13 0.16 0.16 0.15 0.14 0.15 0.15 0.14 0.15 0.15 0.15 0.14 0.13 0.13 0.12 0.12 0.11 0.12 0.11 0.10 0.11 0.10 0.10
0.27 0.26 0.30 0.32 0.34 0.34 0.33 0.33 0.34 0.34 0.33 0.30 0.25 0.22 0.20 0.18 0.15 0.13 0.13 0.14 0.15 0.17 0.17 0.16 0.15 0.16 0.16 0.17 0.16 0.15 0.15 0.15 0.15 0.14 0.13 0.13 0.13 0.12 0.12 0.11 0.11 0.11 0.10 0.11
0.34 0.35 0.36 0.36 0.33 0.32 0.31 0.31 0.32 0.32 0.29 0.24 0.21 0.19 0.17 0.14 0.12 0.13 0.14 0.16 0.17 0.17 0.16 0.16 0.16 0.17 0.18 0.18 0.18 0.16 0.16 0.15 0.14 0.13 0.12 0.13 0.14 0.13 0.13 0.12 0.12 0.11 0.11 0.12
0.36 0.36 0.36 0.35 0.34 0.33 0.32 0.32 0.32 0.31 0.26 0.22 0.20 0.17 0.16 0.15 0.13 0.14 0.14 0.16 0.16 0.16 0.16 0.17 0.17 0.18 0.18 0.19 0.18 0.17 0.15 0.13 0.12 0.12 0.13 0.13 0.13 0.13 0.13 0.13 0.12 0.12 0.12 0.12
0.34 0.35 0.35 0.34 0.34 0.32 0.31 0.32 0.33 0.29 0.24 0.21 0.19 0.15 0.13 0.13 0.13 0.13 0.16 0.16 0.17 0.17 0.17 0.18 0.18 0.19 0.19 0.18 0.17 0.15 0.14 0.12 0.12 0.12 0.12 0.12 0.12 0.12 0.12 0.12 0.11 0.11 0.11 0.11
0.33 0.33 0.32 0.33 0.32 0.33 0.34 0.35 0.32 0.25 0.21 0.19 0.15 0.13 0.12 0.14 0.15 0.16 0.16 0.16 0.18 0.18 0.19 0.19 0.19 0.18 0.17 0.16 0.15 0.13 0.12 0.11 0.11 0.11 0.11 0.11 0.11 0.10 0.10 0.10 0.10 0.10 0.10 0.10
0.32 0.32 0.33 0.35 0.35 0.35 0.35 0.34 0.28 0.22 0.18 0.16 0.14 0.14 0.14 0.15 0.16 0.17 0.18 0.18 0.18 0.19 0.20 0.20 0.19 0.17 0.15 0.14 0.13 0.12 0.11 0.11 0.10 0.10 0.09 0.09 0.09 0.08 0.08 0.08 0.08 0.08 0.08 0.08
0.35 0.35 0.37 0.37 0.36 0.36 0.35 0.30 0.24 0.20 0.17 0.15 0.14 0.14 0.16 0.16 0.17 0.16 0.15 0.19 0.20 0.20 0.19 0.18 0.17 0.15 0.14 0.13 0.11 0.10 0.10 0.10 0.09 0.09 0.08 0.08 0.07 0.07 0.07 0.07 0.07 0.07 0.07 0.07
0.35 0.36 0.37 0.37 0.36 0.34 0.30 0.25 0.20 0.17 0.16 0.15 0.14 0.17 0.17 0.16 0.17 0.19 0.20 0.19 0.19 0.18 0.18 0.17 0.15 0.13 0.12 0.11 0.10 0.10 0.09 0.09 0.08 0.08 0.07 0.07 0.07 0.07 0.07 0.06 0.06 0.06 0.07 0.07
0.35 0.35 0.35 0.34 0.32 0.30 0.25 0.19 0.17 0.15 0.15 0.15 0.16 0.18 0.19 0.20 0.18 0.19 0.18 0.18 0.17 0.17 0.16 0.14 0.13 0.12 0.11 0.10 0.09 0.09 0.08 0.08 0.07 0.07 0.06 0.06 0.06 0.06 0.06 0.06 0.06 0.06 0.07 0.07
0.33 0.33 0.33 0.32 0.29 0.25 0.21 0.18 0.16 0.16 0.16 0.17 0.19 0.20 0.21 0.20 0.19 0.19 0.19 0.18 0.17 0.16 0.14 0.12 0.11 0.11 0.10 0.09 0.08 0.08 0.08 0.07 0.07 0.06 0.06 0.06 0.06 0.06 0.06 0.06 0.06 0.07 0.07 0.06
0.32 0.31 0.30 0.28 0.27 0.24 0.21 0.19 0.17 0.18 0.20 0.21 0.21 0.20 0.20 0.20 0.20 0.20 0.19 0.17 0.16 0.14 0.12 0.11 0.10 0.09 0.09 0.08 0.08 0.08 0.07 0.07 0.07 0.06 0.06 0.06 0.06 0.06 0.06 0.06 0.06 0.06 0.06 0.06